Time,TemperatureF,DewpointF,PressureIn,WindDirection,WindDirectionDegrees,WindSpeedMPH,WindSpeedGustMPH,Humidity,HourlyPrecipIn,Conditions,Clouds,dailyrainin,SolarRadiationWatts/m^2,SoftwareType,DateUTC
2013-07-31 00:00:00,72.5,70.4,29.97,NE,41,0.0,0.0,93,0.00,CLR,,0.43,0.0,WeatherDisplay:10.37,2013-07-31 05:00:00,
2013-07-31 00:02:00,72.5,70.7,29.97,NE,41,0.0,0.0,94,0.00,RA,,0.00,0.0,WeatherDisplay:10.37,2013-07-31 05:02:00,
2013-07-31 00:04:00,72.3,70.5,29.97,NE,41,0.0,0.0,94,0.00,RA,,0.00,0.0,WeatherDisplay:10.37,2013-07-31 05:04:00,
2013-07-31 00:05:00,72.2,70.4,29.97,NE,41,0.0,0.0,94,0.00,RA,,0.00,0.0,WeatherDisplay:10.37,2013-07-31 05:05:00,
2013-07-31 00:06:00,72.2,70.4,29.97,NE,41,0.0,0.0,94,0.00,RA,,0.00,0.0,WeatherDisplay:10.37,2013-07-31 05:06:00,
2013-07-31 00:07:00,72.1,70.6,29.97,NE,41,0.0,0.0,95,0.00,RA,,0.00,0.0,WeatherDisplay:10.37,2013-07-31 05:07:00,
2013-07-31 00:09:00,72.1,70.6,29.97,NE,41,0.0,0.0,95,0.00,RA,,0.00,0.0,WeatherDisplay:10.37,2013-07-31 05:09:00,
2013-07-31 00:10:00,72.1,70.6,29.97,NE,41,0.0,0.0,95,0.00,CLR,,0.00,0.0,WeatherDisplay:10.37,2013-07-31 05:10:00,
2013-07-31 00:12:00,72.0,70.5,29.97,NE,41,0.0,0.0,95,0.00,CLR,,0.00,0.0,WeatherDisplay:10.37,2013-07-31 05:12:00,
2013-07-31 00:14:00,71.9,70.4,29.97,NE,41,0.0,0.0,95,0.00,CLR,,0.00,0.0,WeatherDisplay:10.37,2013-07-31 05:14:00,
2013-07-31 00:15:00,71.9,70.4,29.97,NE,41,0.0,0.0,95,0.00,CLR,,0.00,0.0,WeatherDisplay:10.37,2013-07-31 05:15:00,
2013-07-31 00:17:00,71.9,70.4,29.97,NE,41,0.0,0.0,95,0.00,CLR,,0.00,0.0,WeatherDisplay:10.37,2013-07-31 05:17:00,
2013-07-31 00:18:00,71.9,70.4,29.97,NE,41,0.0,0.0,95,0.00,CLR,,0.00,0.0,WeatherDisplay:10.37,2013-07-31 05:18:00,
2013-07-31 00:20:00,71.8,70.3,29.97,NE,41,0.0,0.0,95,0.00,CLR,,0.00,0.0,WeatherDisplay:10.37,2013-07-31 05:20:00,
2013-07-31 00:22:00,71.7,70.2,29.97,NE,41,0.0,0.0,95,0.00,CLR,,0.00,0.0,WeatherDisplay:10.37,2013-07-31 05:22:00,
2013-07-31 00:23:00,71.7,70.2,29.97,NE,41,0.0,0.0,95,0.00,CLR,,0.00,0.0,WeatherDisplay:10.37,2013-07-31 05:23:00,
2013-07-31 00:25:00,71.6,70.1,29.98,NE,41,0.0,0.0,95,0.00,CLR,,0.00,0.0,WeatherDisplay:10.37,2013-07-31 05:25:00,
2013-07-31 00:27:00,71.7,70.5,29.98,NE,41,0.0,0.0,96,0.00,CLR,,0.00,0.0,WeatherDisplay:10.37,2013-07-31 05:27:00,
2013-07-31 00:28:00,71.6,70.4,29.98,NE,41,0.0,0.0,96,0.00,CLR,,0.00,0.0,WeatherDisplay:10.37,2013-07-31 05:28:00,
2013-07-31 00:30:00,71.7,70.5,29.98,NE,41,0.0,0.0,96,0.00,CLR,,0.00,0.0,WeatherDisplay:10.37,2013-07-31 05:30:00,
2013-07-31 00:31:00,71.6,70.4,29.98,NE,41,0.0,0.0,96,0.00,CLR,,0.00,0.0,WeatherDisplay:10.37,2013-07-31 05:31:00,
2013-07-31 00:33:00,71.7,70.5,29.98,NE,41,0.0,0.0,96,0.00,CLR,,0.00,0.0,WeatherDisplay:10.37,2013-07-31 05:33:00,
2013-07-31 00:34:00,71.7,70.5,29.98,NE,41,0.0,0.0,96,0.00,CLR,,0.00,0.0,WeatherDisplay:10.37,2013-07-31 05:34:00,
2013-07-31 00:35:00,71.7,70.5,29.98,NE,41,0.0,0.0,96,0.00,CLR,,0.00,0.0,WeatherDisplay:10.37,2013-07-31 05:35:00,
2013-07-31 00:37:00,71.7,70.5,29.98,NE,41,0.0,0.0,96,0.00,CLR,,0.00,0.0,WeatherDisplay:10.37,2013-07-31 05:37:00,
2013-07-31 00:38:00,71.8,70.6,29.98,NE,41,0.4,1.2,96,0.00,CLR,,0.00,0.0,WeatherDisplay:10.37,2013-07-31 05:38:00,
2013-07-31 00:39:00,71.8,70.6,29.98,NE,41,0.2,1.2,96,0.00,CLR,,0.00,0.0,WeatherDisplay:10.37,2013-07-31 05:39:00,
2013-07-31 00:40:00,71.8,70.6,29.98,NW,324,1.2,2.3,96,0.00,CLR,,0.00,0.0,WeatherDisplay:10.37,2013-07-31 05:40:00,
2013-07-31 00:41:00,71.8,70.6,29.98,NW,324,1.6,3.5,96,0.00,CLR,,0.00,0.0,WeatherDisplay:10.37,2013-07-31 05:41:00,
2013-07-31 00:42:00,71.9,70.7,29.97,NW,324,0.7,1.2,96,0.00,CLR,,0.00,0.0,WeatherDisplay:10.37,2013-07-31 05:42:00,
2013-07-31 00:44:00,72.0,70.8,29.97,NW,324,0.3,1.2,96,0.00,CLR,,0.00,0.0,WeatherDisplay:10.37,2013-07-31 05:44:00,
2013-07-31 00:45:00,72.0,70.8,29.97,NW,324,0.0,0.0,96,0.00,CLR,,0.00,0.0,WeatherDisplay:10.37,2013-07-31 05:45:00,
2013-07-31 00:46:00,72.1,70.9,29.97,NW,324,0.2,1.2,96,0.00,CLR,,0.00,0.0,WeatherDisplay:10.37,2013-07-31 05:46:00,
2013-07-31 00:47:00,72.1,70.9,29.97,NW,324,0.0,1.2,96,0.00,CLR,,0.00,0.0,WeatherDisplay:10.37,2013-07-31 05:47:00,
2013-07-31 00:49:00,72.2,71.0,29.97,NW,324,0.0,0.0,96,0.00,CLR,,0.00,0.0,WeatherDisplay:10.37,2013-07-31 05:49:00,
2013-07-31 00:50:00,72.2,70.7,29.97,NW,324,0.0,0.0,95,0.00,CLR,,0.00,0.0,WeatherDisplay:10.37,2013-07-31 05:50:00,
2013-07-31 00:51:00,72.2,71.0,29.97,NW,324,0.0,0.0,96,0.00,CLR,,0.00,0.0,WeatherDisplay:10.37,2013-07-31 05:51:00,
2013-07-31 00:52:00,72.2,71.0,29.97,NW,324,0.1,1.0,96,0.00,CLR,,0.00,0.0,WeatherDisplay:10.37,2013-07-31 05:52:00,
2013-07-31 00:54:00,72.3,71.1,29.97,NW,324,0.1,2.3,96,0.00,CLR,,0.00,0.0,WeatherDisplay:10.37,2013-07-31 05:54:00,
2013-07-31 00:55:00,72.3,70.8,29.97,NW,324,0.0,0.0,95,0.00,CLR,,0.00,0.0,WeatherDisplay:10.37,2013-07-31 05:55:00,
2013-07-31 00:57:00,72.3,70.8,29.97,NW,324,0.0,0.0,95,0.00,CLR,,0.00,0.0,WeatherDisplay:10.37,2013-07-31 05:57:00,
2013-07-31 00:58:00,72.3,70.8,29.97,NW,324,0.3,1.2,95,0.00,CLR,,0.00,0.0,WeatherDisplay:10.37,2013-07-31 05:58:00,
2013-07-31 00:59:00,72.3,70.8,29.97,NW,324,0.4,1.2,95,0.00,CLR,,0.00,0.0,WeatherDisplay:10.37,2013-07-31 05:59:00,
2013-07-31 01:01:00,72.4,70.9,29.97,NW,324,0.0,1.2,95,0.00,CLR,,0.00,0.0,WeatherDisplay:10.37,2013-07-31 06:01:00,
2013-07-31 01:02:00,72.4,70.9,29.97,NW,324,0.0,0.0,95,0.00,CLR,,0.00,0.0,WeatherDisplay:10.37,2013-07-31 06:02:00,
2013-07-31 01:03:00,72.4,70.9,29.97,NW,324,0.0,0.0,95,0.00,CLR,,0.00,0.0,WeatherDisplay:10.37,2013-07-31 06:03:00,
2013-07-31 01:04:00,72.4,70.9,29.97,NW,324,0.0,0.0,95,0.00,CLR,,0.00,0.0,WeatherDisplay:10.37,2013-07-31 06:04:00,
2013-07-31 01:07:00,72.4,70.9,29.97,NW,324,0.1,1.2,95,0.00,CLR,,0.00,0.0,WeatherDisplay:10.37,2013-07-31 06:07:00,
2013-07-31 01:08:00,72.4,70.9,29.97,NW,324,0.1,1.2,95,0.00,CLR,,0.00,0.0,WeatherDisplay:10.37,2013-07-31 06:08:00,
2013-07-31 01:09:00,72.5,71.0,29.97,NW,324,0.0,0.0,95,0.00,CLR,,0.00,0.0,WeatherDisplay:10.37,2013-07-31 06:09:00,
2013-07-31 01:10:00,72.5,71.0,29.97,NW,324,0.0,1.2,95,0.00,CLR,,0.00,0.0,WeatherDisplay:10.37,2013-07-31 06:10:00,
2013-07-31 01:12:00,72.5,71.0,29.97,NW,324,0.0,0.0,95,0.00,CLR,,0.00,0.0,WeatherDisplay:10.37,2013-07-31 06:12:00,
2013-07-31 01:13:00,72.6,71.1,29.97,NW,324,0.0,0.0,95,0.00,CLR,,0.00,0.0,WeatherDisplay:10.37,2013-07-31 06:13:00,
2013-07-31 01:15:00,72.6,71.1,29.97,NW,324,0.0,0.0,95,0.00,CLR,,0.00,0.0,WeatherDisplay:10.37,2013-07-31 06:15:00,
2013-07-31 01:17:00,72.6,71.1,29.97,NW,324,0.0,0.0,95,0.00,CLR,,0.00,0.0,WeatherDisplay:10.37,2013-07-31 06:17:00,
2013-07-31 01:18:00,72.6,71.1,29.97,NW,324,0.0,0.0,95,0.00,CLR,,0.00,0.0,WeatherDisplay:10.37,2013-07-31 06:18:00,
2013-07-31 01:20:00,72.6,71.1,29.97,NW,324,0.0,0.0,95,0.00,CLR,,0.00,0.0,WeatherDisplay:10.37,2013-07-31 06:20:00,
2013-07-31 01:21:00,72.6,71.1,29.97,NW,324,0.0,0.0,95,0.00,CLR,,0.00,0.0,WeatherDisplay:10.37,2013-07-31 06:21:00,
2013-07-31 01:22:00,72.6,71.1,29.97,NW,324,0.0,0.0,95,0.00,CLR,,0.00,0.0,WeatherDisplay:10.37,2013-07-31 06:22:00,
2013-07-31 01:23:00,72.6,71.1,29.97,NW,324,0.0,0.0,95,0.00,CLR,,0.00,0.0,WeatherDisplay:10.37,2013-07-31 06:23:00,
2013-07-31 01:25:00,72.6,71.1,29.97,NW,324,0.0,0.0,95,0.00,CLR,,0.00,0.0,WeatherDisplay:10.37,2013-07-31 06:25:00,
2013-07-31 01:26:00,72.6,71.1,29.97,NW,324,0.0,0.0,95,0.00,CLR,,0.00,0.0,WeatherDisplay:10.37,2013-07-31 06:26:00,
2013-07-31 01:27:00,72.6,71.1,29.97,NW,324,0.0,0.0,95,0.00,CLR,,0.00,0.0,WeatherDisplay:10.37,2013-07-31 06:27:00,
2013-07-31 01:28:00,72.6,71.1,29.97,NW,324,0.1,1.0,95,0.00,CLR,,0.00,0.0,WeatherDisplay:10.37,2013-07-31 06:28:00,
2013-07-31 01:30:00,72.6,71.1,29.97,NW,324,0.0,0.0,95,0.00,CLR,,0.00,0.0,WeatherDisplay:10.37,2013-07-31 06:30:00,
2013-07-31 01:31:00,72.6,71.1,29.97,NW,324,0.0,0.0,95,0.00,CLR,,0.00,0.0,WeatherDisplay:10.37,2013-07-31 06:31:00,
2013-07-31 01:33:00,72.6,71.1,29.97,NW,324,0.0,0.0,95,0.00,CLR,,0.00,0.0,WeatherDisplay:10.37,2013-07-31 06:33:00,
2013-07-31 01:35:00,72.6,71.1,29.97,NW,324,0.0,0.0,95,0.00,CLR,,0.00,0.0,WeatherDisplay:10.37,2013-07-31 06:35:00,
2013-07-31 01:36:00,72.6,71.1,29.97,NW,324,0.0,0.0,95,0.00,CLR,,0.00,0.0,WeatherDisplay:10.37,2013-07-31 06:36:00,
2013-07-31 01:38:00,72.6,71.1,29.97,NW,324,0.0,0.0,95,0.00,CLR,,0.00,0.0,WeatherDisplay:10.37,2013-07-31 06:38:00,
2013-07-31 01:39:00,72.6,71.1,29.97,NW,324,0.0,0.0,95,0.00,CLR,,0.00,0.0,WeatherDisplay:10.37,2013-07-31 06:39:00,
2013-07-31 01:40:00,72.6,71.1,29.96,NW,324,0.0,0.0,95,0.00,CLR,,0.00,0.0,WeatherDisplay:10.37,2013-07-31 06:40:00,
2013-07-31 01:42:00,72.6,71.1,29.97,NW,324,0.0,0.0,95,0.00,CLR,,0.00,0.0,WeatherDisplay:10.37,2013-07-31 06:42:00,
2013-07-31 01:43:00,72.6,71.1,29.96,NW,324,0.0,0.0,95,0.00,CLR,,0.00,0.0,WeatherDisplay:10.37,2013-07-31 06:43:00,
2013-07-31 01:44:00,72.6,71.1,29.96,NW,324,0.0,0.0,95,0.00,CLR,,0.00,0.0,WeatherDisplay:10.37,2013-07-31 06:44:00,
2013-07-31 01:46:00,72.6,71.1,29.96,NW,324,0.0,0.0,95,0.00,CLR,,0.00,0.0,WeatherDisplay:10.37,2013-07-31 06:46:00,
2013-07-31 01:47:00,72.6,71.1,29.96,NW,324,0.0,0.0,95,0.00,CLR,,0.00,0.0,WeatherDisplay:10.37,2013-07-31 06:47:00,
2013-07-31 01:48:00,72.6,71.1,29.96,NW,324,0.0,0.0,95,0.00,CLR,,0.00,0.0,WeatherDisplay:10.37,2013-07-31 06:48:00,
2013-07-31 01:49:00,72.6,71.1,29.96,NW,324,0.0,0.0,95,0.00,CLR,,0.00,0.0,WeatherDisplay:10.37,2013-07-31 06:49:00,
2013-07-31 01:51:00,72.5,71.0,29.96,NW,324,0.0,0.0,95,0.00,CLR,,0.00,0.0,WeatherDisplay:10.37,2013-07-31 06:51:00,
2013-07-31 01:52:00,72.5,71.0,29.96,NW,324,0.0,0.0,95,0.00,CLR,,0.00,0.0,WeatherDisplay:10.37,2013-07-31 06:52:00,
2013-07-31 01:53:00,72.5,71.0,29.96,NW,324,0.0,0.0,95,0.00,CLR,,0.00,0.0,WeatherDisplay:10.37,2013-07-31 06:53:00,
2013-07-31 01:54:00,72.5,71.0,29.96,NW,324,0.0,0.0,95,0.00,CLR,,0.00,0.0,WeatherDisplay:10.37,2013-07-31 06:54:00,
2013-07-31 01:57:00,72.4,70.9,29.96,NW,324,0.0,0.0,95,0.00,CLR,,0.00,0.0,WeatherDisplay:10.37,2013-07-31 06:57:00,
2013-07-31 01:58:00,72.4,70.9,29.96,NW,324,0.0,0.0,95,0.00,CLR,,0.00,0.0,WeatherDisplay:10.37,2013-07-31 06:58:00,
2013-07-31 01:59:00,72.4,70.9,29.96,NW,324,0.0,0.0,95,0.00,CLR,,0.00,0.0,WeatherDisplay:10.37,2013-07-31 06:59:00,
2013-07-31 02:02:00,72.3,70.8,29.96,NW,324,0.0,0.0,95,0.00,CLR,,0.00,0.0,WeatherDisplay:10.37,2013-07-31 07:02:00,
2013-07-31 02:03:00,72.3,71.1,29.96,NW,324,0.0,0.0,96,0.00,CLR,,0.00,0.0,WeatherDisplay:10.37,2013-07-31 07:03:00,
2013-07-31 02:04:00,72.3,71.1,29.96,NW,324,0.0,0.0,96,0.00,CLR,,0.00,0.0,WeatherDisplay:10.37,2013-07-31 07:04:00,
2013-07-31 02:05:00,72.3,71.1,29.96,NW,324,0.0,0.0,96,0.00,CLR,,0.00,0.0,WeatherDisplay:10.37,2013-07-31 07:05:00,
2013-07-31 02:07:00,72.3,71.1,29.95,NW,324,0.0,0.0,96,0.00,CLR,,0.00,0.0,WeatherDisplay:10.37,2013-07-31 07:07:00,
2013-07-31 02:08:00,72.3,71.1,29.95,NW,324,0.0,0.0,96,0.00,CLR,,0.00,0.0,WeatherDisplay:10.37,2013-07-31 07:08:00,
2013-07-31 02:09:00,72.2,71.0,29.95,NW,324,0.0,0.0,96,0.00,CLR,,0.00,0.0,WeatherDisplay:10.37,2013-07-31 07:09:00,
2013-07-31 02:10:00,72.2,71.0,29.95,NW,324,0.0,0.0,96,0.00,CLR,,0.00,0.0,WeatherDisplay:10.37,2013-07-31 07:10:00,
2013-07-31 02:13:00,72.1,70.6,29.95,NW,324,0.0,0.0,95,0.00,CLR,,0.00,0.0,WeatherDisplay:10.37,2013-07-31 07:13:00,
2013-07-31 02:14:00,72.1,70.6,29.95,NW,324,0.0,0.0,95,0.00,CLR,,0.00,0.0,WeatherDisplay:10.37,2013-07-31 07:14:00,
2013-07-31 02:15:00,72.1,70.6,29.95,NW,324,0.0,0.0,95,0.00,CLR,,0.00,0.0,WeatherDisplay:10.37,2013-07-31 07:15:00,
2013-07-31 02:18:00,71.9,70.4,29.96,NW,324,0.0,0.0,95,0.00,CLR,,0.00,0.0,WeatherDisplay:10.37,2013-07-31 07:18:00,
2013-07-31 02:19:00,71.9,70.4,29.96,NW,324,0.0,0.0,95,0.00,CLR,,0.00,0.0,WeatherDisplay:10.37,2013-07-31 07:19:00,
2013-07-31 02:20:00,71.9,70.4,29.96,NW,324,0.0,0.0,95,0.00,CLR,,0.00,0.0,WeatherDisplay:10.37,2013-07-31 07:20:00,
2013-07-31 02:21:00,71.8,70.6,29.96,NW,324,0.0,0.0,96,0.00,CLR,,0.00,0.0,WeatherDisplay:10.37,2013-07-31 07:21:00,
2013-07-31 02:23:00,71.8,70.6,29.96,NW,324,0.0,0.0,96,0.00,CLR,,0.00,0.0,WeatherDisplay:10.37,2013-07-31 07:23:00,
2013-07-31 02:24:00,71.7,70.5,29.96,NW,324,0.0,0.0,96,0.00,CLR,,0.00,0.0,WeatherDisplay:10.37,2013-07-31 07:24:00,
2013-07-31 02:25:00,71.6,70.4,29.96,NW,324,0.0,0.0,96,0.00,CLR,,0.00,0.0,WeatherDisplay:10.37,2013-07-31 07:25:00,
2013-07-31 02:26:00,71.6,70.4,29.96,NW,324,0.0,0.0,96,0.00,CLR,,0.00,0.0,WeatherDisplay:10.37,2013-07-31 07:26:00,
2013-07-31 02:28:00,71.5,70.3,29.96,NW,324,0.0,0.0,96,0.00,CLR,,0.00,0.0,WeatherDisplay:10.37,2013-07-31 07:28:00,
2013-07-31 02:29:00,71.5,70.3,29.96,NW,324,0.0,0.0,96,0.00,CLR,,0.00,0.0,WeatherDisplay:10.37,2013-07-31 07:29:00,
2013-07-31 02:30:00,71.4,70.2,29.96,NW,324,0.0,0.0,96,0.00,CLR,,0.00,0.0,WeatherDisplay:10.37,2013-07-31 07:30:00,
2013-07-31 02:31:00,71.4,70.2,29.96,NW,324,0.0,0.0,96,0.00,CLR,,0.00,0.0,WeatherDisplay:10.37,2013-07-31 07:31:00,
2013-07-31 02:32:00,71.3,70.1,29.96,NW,324,0.0,0.0,96,0.00,CLR,,0.00,0.0,WeatherDisplay:10.37,2013-07-31 07:32:00,
2013-07-31 02:34:00,71.3,70.1,29.96,NW,324,0.0,0.0,96,0.00,CLR,,0.00,0.0,WeatherDisplay:10.37,2013-07-31 07:34:00,
2013-07-31 02:35:00,71.2,70.0,29.96,NW,324,0.0,0.0,96,0.00,CLR,,0.00,0.0,WeatherDisplay:10.37,2013-07-31 07:35:00,
2013-07-31 02:36:00,71.2,70.0,29.96,NW,324,0.0,0.0,96,0.00,CLR,,0.00,0.0,WeatherDisplay:10.37,2013-07-31 07:36:00,
2013-07-31 02:37:00,71.1,69.9,29.96,NW,324,0.0,0.0,96,0.00,CLR,,0.00,0.0,WeatherDisplay:10.37,2013-07-31 07:37:00,
2013-07-31 02:39:00,71.0,69.8,29.96,NW,324,0.0,0.0,96,0.00,CLR,,0.00,0.0,WeatherDisplay:10.37,2013-07-31 07:39:00,
2013-07-31 02:40:00,71.0,69.8,29.96,NW,324,0.0,0.0,96,0.00,CLR,,0.00,0.0,WeatherDisplay:10.37,2013-07-31 07:40:00,
2013-07-31 02:42:00,71.0,69.8,29.96,NW,324,0.0,0.0,96,0.00,CLR,,0.00,0.0,WeatherDisplay:10.37,2013-07-31 07:42:00,
2013-07-31 02:44:00,70.9,69.7,29.96,NW,324,0.0,0.0,96,0.00,CLR,,0.00,0.0,WeatherDisplay:10.37,2013-07-31 07:44:00,
2013-07-31 02:45:00,70.9,69.7,29.96,NW,324,0.0,0.0,96,0.00,CLR,,0.00,0.0,WeatherDisplay:10.37,2013-07-31 07:45:00,
2013-07-31 02:46:00,70.8,69.6,29.96,NW,324,0.0,0.0,96,0.00,CLR,,0.00,0.0,WeatherDisplay:10.37,2013-07-31 07:46:00,
2013-07-31 02:47:00,70.8,69.6,29.96,NW,324,0.0,1.0,96,0.00,CLR,,0.00,0.0,WeatherDisplay:10.37,2013-07-31 07:47:00,
2013-07-31 02:49:00,70.7,69.8,29.96,NW,324,0.0,0.0,97,0.00,CLR,,0.00,0.0,WeatherDisplay:10.37,2013-07-31 07:49:00,
2013-07-31 02:51:00,70.7,69.5,29.96,NW,324,0.0,0.0,96,0.00,CLR,,0.00,0.0,WeatherDisplay:10.37,2013-07-31 07:51:00,
2013-07-31 02:52:00,70.6,69.7,29.97,NW,324,0.3,0.0,97,0.00,CLR,,0.00,0.0,WeatherDisplay:10.37,2013-07-31 07:52:00,
2013-07-31 02:53:00,70.6,69.7,29.97,NW,324,0.5,2.3,97,0.00,CLR,,0.00,0.0,WeatherDisplay:10.37,2013-07-31 07:53:00,
2013-07-31 02:54:00,70.6,69.7,29.97,NNW,334,0.4,2.3,97,0.00,CLR,,0.00,0.0,WeatherDisplay:10.37,2013-07-31 07:54:00,
2013-07-31 02:57:00,70.7,69.8,29.97,NNW,334,0.1,1.2,97,0.00,CLR,,0.00,0.0,WeatherDisplay:10.37,2013-07-31 07:57:00,
2013-07-31 02:58:00,70.7,69.8,29.97,NNW,334,0.4,2.3,97,0.00,CLR,,0.00,0.0,WeatherDisplay:10.37,2013-07-31 07:58:00,
2013-07-31 02:59:00,70.8,69.9,29.97,NNW,334,1.0,3.0,97,0.00,CLR,,0.00,0.0,WeatherDisplay:10.37,2013-07-31 07:59:00,
2013-07-31 03:02:00,70.8,69.9,29.97,North,355,1.0,3.5,97,0.00,CLR,,0.00,0.0,WeatherDisplay:10.37,2013-07-31 08:02:00,
2013-07-31 03:03:00,70.9,70.0,29.97,North,350,1.0,2.3,97,0.00,CLR,,0.00,0.0,WeatherDisplay:10.37,2013-07-31 08:03:00,
2013-07-31 03:05:00,70.9,70.0,29.97,NNW,333,1.0,3.5,97,0.00,CLR,,0.00,0.0,WeatherDisplay:10.37,2013-07-31 08:05:00,
2013-07-31 03:07:00,71.0,70.1,29.97,NNW,333,0.1,0.0,97,0.00,CLR,,0.00,0.0,WeatherDisplay:10.37,2013-07-31 08:07:00,
2013-07-31 03:08:00,71.0,70.1,29.97,NNW,333,0.2,1.2,97,0.00,CLR,,0.00,0.0,WeatherDisplay:10.37,2013-07-31 08:08:00,
2013-07-31 03:09:00,71.0,70.1,29.97,NNW,333,0.5,1.2,97,0.00,CLR,,0.00,0.0,WeatherDisplay:10.37,2013-07-31 08:09:00,
2013-07-31 03:10:00,71.0,70.1,29.96,NNW,328,0.7,1.2,97,0.00,CLR,,0.00,0.0,WeatherDisplay:10.37,2013-07-31 08:10:00,
2013-07-31 03:12:00,71.0,70.1,29.96,North,355,0.6,1.2,97,0.00,CLR,,0.00,0.0,WeatherDisplay:10.37,2013-07-31 08:12:00,
2013-07-31 03:13:00,71.0,70.1,29.96,North,355,0.3,2.3,97,0.00,CLR,,0.00,0.0,WeatherDisplay:10.37,2013-07-31 08:13:00,
2013-07-31 03:14:00,71.0,70.1,29.96,North,355,0.1,1.2,97,0.00,CLR,,0.00,0.0,WeatherDisplay:10.37,2013-07-31 08:14:00,
2013-07-31 03:15:00,71.1,70.5,29.96,North,355,0.0,1.2,98,0.00,CLR,,0.00,0.0,WeatherDisplay:10.37,2013-07-31 08:15:00,
2013-07-31 03:18:00,71.1,70.5,29.96,North,355,0.0,1.2,98,0.00,CLR,,0.00,0.0,WeatherDisplay:10.37,2013-07-31 08:18:00,
2013-07-31 03:19:00,71.2,70.6,29.96,North,355,0.0,0.0,98,0.00,CLR,,0.00,0.0,WeatherDisplay:10.37,2013-07-31 08:19:00,
2013-07-31 03:21:00,71.2,70.6,29.96,ENE,65,0.0,0.0,98,0.00,CLR,,0.00,0.0,WeatherDisplay:10.37,2013-07-31 08:21:00,
2013-07-31 03:23:00,71.2,70.6,29.96,NNW,347,0.2,0.0,98,0.00,CLR,,0.00,0.0,WeatherDisplay:10.37,2013-07-31 08:23:00,
2013-07-31 03:24:00,71.2,70.6,29.96,NNW,347,0.2,1.2,98,0.00,CLR,,0.00,0.0,WeatherDisplay:10.37,2013-07-31 08:24:00,
2013-07-31 03:26:00,71.3,70.7,29.96,NNW,348,0.1,1.2,98,0.00,CLR,,0.00,0.0,WeatherDisplay:10.37,2013-07-31 08:26:00,
2013-07-31 03:28:00,71.3,70.7,29.96,NNW,348,0.3,1.2,98,0.00,CLR,,0.00,0.0,WeatherDisplay:10.37,2013-07-31 08:28:00,
2013-07-31 03:29:00,71.3,70.7,29.96,NNW,348,0.0,1.2,98,0.00,CLR,,0.00,0.0,WeatherDisplay:10.37,2013-07-31 08:29:00,
2013-07-31 03:31:00,71.3,70.7,29.96,NNW,348,0.0,0.0,98,0.00,CLR,,0.00,0.0,WeatherDisplay:10.37,2013-07-31 08:31:00,
2013-07-31 03:33:00,71.3,70.7,29.96,NNW,348,0.0,0.0,98,0.00,CLR,,0.00,0.0,WeatherDisplay:10.37,2013-07-31 08:33:00,
2013-07-31 03:34:00,71.3,70.7,29.96,NNW,348,0.0,0.0,98,0.00,CLR,,0.00,0.0,WeatherDisplay:10.37,2013-07-31 08:34:00,
2013-07-31 03:36:00,71.3,70.4,29.96,NNW,348,0.0,0.0,97,0.00,CLR,,0.00,0.0,WeatherDisplay:10.37,2013-07-31 08:36:00,
2013-07-31 03:38:00,71.3,70.4,29.96,NNW,348,0.0,0.0,97,0.00,CLR,,0.00,0.0,WeatherDisplay:10.37,2013-07-31 08:38:00,
2013-07-31 03:39:00,71.3,70.4,29.97,NNW,348,0.0,0.0,97,0.00,CLR,,0.00,0.0,WeatherDisplay:10.37,2013-07-31 08:39:00,
2013-07-31 03:40:00,71.3,70.4,29.97,NNW,348,0.0,0.0,97,0.00,CLR,,0.00,0.0,WeatherDisplay:10.37,2013-07-31 08:40:00,
2013-07-31 03:41:00,71.3,70.4,29.97,NNW,348,0.0,0.0,97,0.00,CLR,,0.00,0.0,WeatherDisplay:10.37,2013-07-31 08:41:00,
2013-07-31 03:44:00,71.2,70.3,29.97,NNW,348,0.0,0.0,97,0.00,CLR,,0.00,0.0,WeatherDisplay:10.37,2013-07-31 08:44:00,
2013-07-31 03:45:00,71.2,70.3,29.97,NNW,348,0.0,0.0,97,0.00,CLR,,0.00,0.0,WeatherDisplay:10.37,2013-07-31 08:45:00,
2013-07-31 03:47:00,71.1,70.2,29.97,NNW,348,0.0,0.0,97,0.00,CLR,,0.00,0.0,WeatherDisplay:10.37,2013-07-31 08:47:00,
2013-07-31 03:49:00,71.1,70.2,29.97,NNW,348,0.0,0.0,97,0.00,CLR,,0.00,0.0,WeatherDisplay:10.37,2013-07-31 08:49:00,
2013-07-31 03:50:00,71.1,70.2,29.97,NNW,348,0.0,0.0,97,0.00,CLR,,0.00,0.0,WeatherDisplay:10.37,2013-07-31 08:50:00,
2013-07-31 03:53:00,71.1,70.2,29.97,NNW,348,0.0,0.0,97,0.00,CLR,,0.00,0.0,WeatherDisplay:10.37,2013-07-31 08:53:00,
2013-07-31 03:54:00,71.0,70.1,29.97,NNW,348,0.0,0.0,97,0.00,CLR,,0.00,0.0,WeatherDisplay:10.37,2013-07-31 08:54:00,
2013-07-31 03:55:00,71.0,70.1,29.97,NNW,348,0.0,0.0,97,0.00,CLR,,0.00,0.0,WeatherDisplay:10.37,2013-07-31 08:55:00,
2013-07-31 03:58:00,71.0,70.1,29.97,NNW,348,0.2,0.0,97,0.00,CLR,,0.00,0.0,WeatherDisplay:10.37,2013-07-31 08:58:00,
2013-07-31 03:59:00,71.0,70.1,29.97,NNW,348,0.0,1.2,97,0.00,CLR,,0.00,0.0,WeatherDisplay:10.37,2013-07-31 08:59:00,
2013-07-31 04:00:00,71.0,70.1,29.97,NNW,348,0.0,1.2,97,0.00,CLR,,0.00,0.0,WeatherDisplay:10.37,2013-07-31 09:00:00,
2013-07-31 04:04:00,71.0,70.1,29.97,NNW,348,0.3,1.2,97,0.00,CLR,,0.00,0.0,WeatherDisplay:10.37,2013-07-31 09:04:00,
2013-07-31 04:05:00,71.0,70.1,29.98,NNW,348,0.3,2.0,97,0.00,CLR,,0.00,0.0,WeatherDisplay:10.37,2013-07-31 09:05:00,
2013-07-31 04:09:00,71.0,70.1,29.98,NNW,348,0.0,0.0,97,0.00,CLR,,0.00,0.0,WeatherDisplay:10.37,2013-07-31 09:09:00,
2013-07-31 04:10:00,71.0,70.1,29.98,NNW,348,0.0,0.0,97,0.00,CLR,,0.00,0.0,WeatherDisplay:10.37,2013-07-31 09:10:00,
2013-07-31 04:14:00,70.9,70.0,29.97,NNW,348,0.0,0.0,97,0.00,CLR,,0.00,0.0,WeatherDisplay:10.37,2013-07-31 09:14:00,
2013-07-31 04:15:00,71.0,70.1,29.97,NNW,348,0.0,0.0,97,0.00,CLR,,0.00,0.0,WeatherDisplay:10.37,2013-07-31 09:15:00,
2013-07-31 04:16:00,71.0,70.1,29.97,NNW,348,0.0,0.0,97,0.00,CLR,,0.00,0.0,WeatherDisplay:10.37,2013-07-31 09:16:00,
2013-07-31 04:19:00,71.0,70.1,29.97,NNW,348,0.0,0.0,97,0.00,CLR,,0.00,0.0,WeatherDisplay:10.37,2013-07-31 09:19:00,
2013-07-31 04:20:00,71.0,70.1,29.97,NNW,348,0.0,0.0,97,0.00,CLR,,0.00,0.0,WeatherDisplay:10.37,2013-07-31 09:20:00,
2013-07-31 04:21:00,71.0,70.1,29.97,NNW,348,0.0,0.0,97,0.00,CLR,,0.00,0.0,WeatherDisplay:10.37,2013-07-31 09:21:00,
2013-07-31 04:22:00,71.0,70.1,29.97,NNW,348,0.0,0.0,97,0.00,CLR,,0.00,0.0,WeatherDisplay:10.37,2013-07-31 09:22:00,
2013-07-31 04:24:00,71.0,70.1,29.98,NNW,348,0.0,0.0,97,0.00,CLR,,0.00,0.0,WeatherDisplay:10.37,2013-07-31 09:24:00,
2013-07-31 04:25:00,70.9,70.0,29.98,NNW,348,0.0,0.0,97,0.00,CLR,,0.00,0.0,WeatherDisplay:10.37,2013-07-31 09:25:00,
2013-07-31 04:26:00,70.9,70.0,29.98,NNW,348,0.0,0.0,97,0.00,CLR,,0.00,0.0,WeatherDisplay:10.37,2013-07-31 09:26:00,
2013-07-31 04:28:00,70.9,70.0,29.98,NNW,348,0.0,0.0,97,0.00,CLR,,0.00,0.0,WeatherDisplay:10.37,2013-07-31 09:28:00,
2013-07-31 04:29:00,70.9,70.0,29.98,NNW,348,0.0,0.0,97,0.00,CLR,,0.00,0.0,WeatherDisplay:10.37,2013-07-31 09:29:00,
2013-07-31 04:30:00,70.9,70.0,29.98,NNW,348,0.0,0.0,97,0.00,CLR,,0.00,0.0,WeatherDisplay:10.37,2013-07-31 09:30:00,
2013-07-31 04:31:00,70.9,70.0,29.98,NNW,348,0.0,0.0,97,0.00,CLR,,0.00,0.0,WeatherDisplay:10.37,2013-07-31 09:31:00,
2013-07-31 04:32:00,70.9,70.0,29.98,NNW,348,0.0,1.2,97,0.00,CLR,,0.00,0.0,WeatherDisplay:10.37,2013-07-31 09:32:00,
2013-07-31 04:33:00,70.9,70.0,29.98,NNW,348,0.4,1.2,97,0.00,CLR,,0.00,0.0,WeatherDisplay:10.37,2013-07-31 09:33:00,
2013-07-31 04:34:00,70.9,70.0,29.98,NNW,348,0.0,1.0,97,0.00,CLR,,0.00,0.0,WeatherDisplay:10.37,2013-07-31 09:34:00,
2013-07-31 04:36:00,70.9,70.0,29.98,NNW,348,0.0,0.0,97,0.00,CLR,,0.00,0.0,WeatherDisplay:10.37,2013-07-31 09:36:00,
2013-07-31 04:37:00,70.9,70.0,29.98,NNW,348,0.1,1.2,97,0.00,CLR,,0.00,0.0,WeatherDisplay:10.37,2013-07-31 09:37:00,
2013-07-31 04:38:00,70.9,70.0,29.98,NNW,348,0.1,1.2,97,0.00,CLR,,0.00,0.0,WeatherDisplay:10.37,2013-07-31 09:38:00,
2013-07-31 04:39:00,70.9,70.0,29.98,NNW,348,0.0,1.0,97,0.00,CLR,,0.00,0.0,WeatherDisplay:10.37,2013-07-31 09:39:00,
2013-07-31 04:41:00,70.9,70.0,29.98,NNW,348,0.0,0.0,97,0.00,CLR,,0.00,0.0,WeatherDisplay:10.37,2013-07-31 09:41:00,
2013-07-31 04:43:00,70.9,70.0,29.97,NNW,348,0.3,1.2,97,0.00,CLR,,0.00,0.0,WeatherDisplay:10.37,2013-07-31 09:43:00,
2013-07-31 04:44:00,70.9,70.0,29.97,NNW,348,0.0,1.0,97,0.00,CLR,,0.00,0.0,WeatherDisplay:10.37,2013-07-31 09:44:00,
2013-07-31 04:46:00,70.9,70.0,29.97,NNW,348,0.0,0.0,97,0.00,CLR,,0.00,0.0,WeatherDisplay:10.37,2013-07-31 09:46:00,
2013-07-31 04:48:00,70.9,70.0,29.97,NNW,348,0.0,0.0,97,0.00,CLR,,0.00,0.0,WeatherDisplay:10.37,2013-07-31 09:48:00,
2013-07-31 04:49:00,70.9,70.0,29.97,NNW,348,0.0,0.0,97,0.00,CLR,,0.00,0.0,WeatherDisplay:10.37,2013-07-31 09:49:00,
2013-07-31 04:50:00,70.9,70.0,29.97,NNW,348,0.0,0.0,97,0.00,CLR,,0.00,0.0,WeatherDisplay:10.37,2013-07-31 09:50:00,
2013-07-31 04:51:00,70.9,70.0,29.97,NNW,348,0.0,0.0,97,0.00,CLR,,0.00,0.0,WeatherDisplay:10.37,2013-07-31 09:51:00,
2013-07-31 04:53:00,70.9,70.0,29.97,NNW,348,0.0,0.0,97,0.00,CLR,,0.00,0.0,WeatherDisplay:10.37,2013-07-31 09:53:00,
2013-07-31 04:54:00,70.9,70.0,29.97,NNW,348,0.0,0.0,97,0.00,CLR,,0.00,0.0,WeatherDisplay:10.37,2013-07-31 09:54:00,
2013-07-31 04:55:00,70.9,70.0,29.97,NNW,348,0.0,0.0,97,0.00,CLR,,0.00,0.0,WeatherDisplay:10.37,2013-07-31 09:55:00,
2013-07-31 04:57:00,70.9,70.0,29.97,NNW,348,0.0,0.0,97,0.00,CLR,,0.00,0.0,WeatherDisplay:10.37,2013-07-31 09:57:00,
2013-07-31 04:58:00,70.9,70.0,29.97,NNW,348,0.0,0.0,97,0.00,CLR,,0.00,0.0,WeatherDisplay:10.37,2013-07-31 09:58:00,
2013-07-31 04:59:00,70.9,70.0,29.97,NNW,348,0.0,0.0,97,0.00,CLR,,0.00,0.0,WeatherDisplay:10.37,2013-07-31 09:59:00,
2013-07-31 05:00:00,70.9,70.0,29.97,NNW,348,0.0,0.0,97,0.00,CLR,,0.00,0.0,WeatherDisplay:10.37,2013-07-31 10:00:00,
2013-07-31 05:02:00,70.9,70.0,29.97,NNW,348,0.0,0.0,97,0.00,CLR,,0.00,0.0,WeatherDisplay:10.37,2013-07-31 10:02:00,
2013-07-31 05:03:00,70.9,70.0,29.97,NNW,348,0.1,1.2,97,0.00,CLR,,0.00,0.0,WeatherDisplay:10.37,2013-07-31 10:03:00,
2013-07-31 05:04:00,70.9,70.0,29.97,NNW,348,0.0,0.0,97,0.00,CLR,,0.00,0.0,WeatherDisplay:10.37,2013-07-31 10:04:00,
2013-07-31 05:05:00,70.9,70.0,29.97,NNW,348,0.0,0.0,97,0.00,CLR,,0.00,0.0,WeatherDisplay:10.37,2013-07-31 10:05:00,
2013-07-31 05:07:00,70.8,69.9,29.97,NNW,348,0.0,0.0,97,0.00,CLR,,0.00,0.0,WeatherDisplay:10.37,2013-07-31 10:07:00,
2013-07-31 05:08:00,70.8,69.9,29.97,NNW,348,0.0,0.0,97,0.00,CLR,,0.00,0.0,WeatherDisplay:10.37,2013-07-31 10:08:00,
2013-07-31 05:09:00,70.8,69.9,29.97,NNW,348,0.0,0.0,97,0.00,CLR,,0.00,0.0,WeatherDisplay:10.37,2013-07-31 10:09:00,
2013-07-31 05:10:00,70.8,69.9,29.97,NNW,348,0.0,0.0,97,0.00,CLR,,0.00,0.0,WeatherDisplay:10.37,2013-07-31 10:10:00,
2013-07-31 05:12:00,70.8,69.9,29.97,NNW,348,0.0,0.0,97,0.00,CLR,,0.00,0.0,WeatherDisplay:10.37,2013-07-31 10:12:00,
2013-07-31 05:14:00,70.8,69.9,29.97,NNW,348,0.0,0.0,97,0.00,CLR,,0.00,0.0,WeatherDisplay:10.37,2013-07-31 10:14:00,
2013-07-31 05:15:00,70.8,69.9,29.97,NNW,348,0.0,0.0,97,0.00,CLR,,0.00,0.0,WeatherDisplay:10.37,2013-07-31 10:15:00,
2013-07-31 05:16:00,70.8,69.9,29.97,NNW,348,0.0,0.0,97,0.00,CLR,,0.00,0.0,WeatherDisplay:10.37,2013-07-31 10:16:00,
2013-07-31 05:18:00,70.8,69.9,29.97,NNW,348,0.0,0.0,97,0.00,CLR,,0.00,0.0,WeatherDisplay:10.37,2013-07-31 10:18:00,
2013-07-31 05:19:00,70.8,69.9,29.97,NNW,348,0.0,0.0,97,0.00,CLR,,0.00,0.0,WeatherDisplay:10.37,2013-07-31 10:19:00,
2013-07-31 05:20:00,70.9,70.0,29.97,NNW,348,0.0,0.0,97,0.00,CLR,,0.00,0.0,WeatherDisplay:10.37,2013-07-31 10:20:00,
2013-07-31 05:21:00,70.9,70.0,29.97,NNW,348,0.0,0.0,97,0.00,CLR,,0.00,0.0,WeatherDisplay:10.37,2013-07-31 10:21:00,
2013-07-31 05:23:00,70.8,69.9,29.97,NNW,348,0.0,0.0,97,0.00,CLR,,0.00,0.0,WeatherDisplay:10.37,2013-07-31 10:23:00,
2013-07-31 05:24:00,70.8,69.9,29.97,NNW,348,0.0,0.0,97,0.00,CLR,,0.00,0.0,WeatherDisplay:10.37,2013-07-31 10:24:00,
2013-07-31 05:25:00,70.8,69.9,29.97,NNW,348,0.0,0.0,97,0.00,CLR,,0.00,0.0,WeatherDisplay:10.37,2013-07-31 10:25:00,
2013-07-31 05:26:00,70.9,70.0,29.97,NNW,348,0.0,0.0,97,0.00,CLR,,0.00,0.0,WeatherDisplay:10.37,2013-07-31 10:26:00,
2013-07-31 05:28:00,70.8,69.9,29.97,NNW,348,0.1,1.2,97,0.00,CLR,,0.00,0.0,WeatherDisplay:10.37,2013-07-31 10:28:00,
2013-07-31 05:29:00,70.8,69.9,29.97,NNW,348,0.1,1.2,97,0.00,CLR,,0.00,0.0,WeatherDisplay:10.37,2013-07-31 10:29:00,
2013-07-31 05:30:00,70.8,69.9,29.97,NNW,348,0.0,1.2,97,0.00,CLR,,0.00,0.0,WeatherDisplay:10.37,2013-07-31 10:30:00,
2013-07-31 05:31:00,70.8,69.9,29.97,NNW,348,0.0,0.0,97,0.00,CLR,,0.00,0.0,WeatherDisplay:10.37,2013-07-31 10:31:00,
2013-07-31 05:33:00,70.8,69.9,29.97,NNW,348,0.0,0.0,97,0.00,CLR,,0.00,0.0,WeatherDisplay:10.37,2013-07-31 10:33:00,
2013-07-31 05:35:00,70.8,69.9,29.97,NNW,348,0.0,0.0,97,0.00,CLR,,0.00,0.0,WeatherDisplay:10.37,2013-07-31 10:35:00,
2013-07-31 05:36:00,70.8,69.9,29.97,NNW,348,0.0,0.0,97,0.00,CLR,,0.00,0.0,WeatherDisplay:10.37,2013-07-31 10:36:00,
2013-07-31 05:38:00,70.7,69.8,29.97,NE,40,0.0,1.2,97,0.00,CLR,,0.00,0.0,WeatherDisplay:10.37,2013-07-31 10:38:00,
2013-07-31 05:39:00,70.7,69.8,29.97,NE,40,0.0,0.0,97,0.00,CLR,,0.00,0.0,WeatherDisplay:10.37,2013-07-31 10:39:00,
2013-07-31 05:40:00,70.7,69.8,29.97,NE,40,0.0,0.0,97,0.00,CLR,,0.00,0.0,WeatherDisplay:10.37,2013-07-31 10:40:00,
2013-07-31 05:41:00,70.7,69.8,29.97,NE,40,0.0,0.0,97,0.00,CLR,,0.00,0.0,WeatherDisplay:10.37,2013-07-31 10:41:00,
2013-07-31 05:43:00,70.7,69.8,29.97,NE,40,0.0,0.0,97,0.00,CLR,,0.00,0.0,WeatherDisplay:10.37,2013-07-31 10:43:00,
2013-07-31 05:44:00,70.7,69.8,29.97,NE,40,0.0,0.0,97,0.00,CLR,,0.00,0.0,WeatherDisplay:10.37,2013-07-31 10:44:00,
2013-07-31 05:45:00,70.7,69.8,29.97,NE,40,0.0,1.2,97,0.00,CLR,,0.00,0.0,WeatherDisplay:10.37,2013-07-31 10:45:00,
2013-07-31 05:47:00,70.6,69.7,29.97,NE,40,0.0,0.0,97,0.00,CLR,,0.00,0.0,WeatherDisplay:10.37,2013-07-31 10:47:00,
2013-07-31 05:48:00,70.6,69.7,29.97,NE,40,0.1,1.2,97,0.00,CLR,,0.00,0.0,WeatherDisplay:10.37,2013-07-31 10:48:00,
2013-07-31 05:49:00,70.6,69.7,29.97,NE,43,0.1,1.2,97,0.00,CLR,,0.00,0.0,WeatherDisplay:10.37,2013-07-31 10:49:00,
2013-07-31 05:50:00,70.6,69.7,29.97,NE,43,0.0,0.0,97,0.00,CLR,,0.00,0.0,WeatherDisplay:10.37,2013-07-31 10:50:00,
2013-07-31 05:52:00,70.6,69.7,29.97,NE,43,0.0,0.0,97,0.00,CLR,,0.00,0.0,WeatherDisplay:10.37,2013-07-31 10:52:00,
2013-07-31 05:53:00,70.5,69.6,29.97,NE,43,0.0,0.0,97,0.00,CLR,,0.00,0.0,WeatherDisplay:10.37,2013-07-31 10:53:00,
2013-07-31 05:55:00,70.4,69.5,29.97,NE,43,0.0,1.2,97,0.00,CLR,,0.00,0.0,WeatherDisplay:10.37,2013-07-31 10:55:00,
2013-07-31 05:57:00,70.4,69.5,29.98,NE,43,0.0,0.0,97,0.00,CLR,,0.00,0.0,WeatherDisplay:10.37,2013-07-31 10:57:00,
2013-07-31 05:58:00,70.4,69.5,29.98,NE,43,0.1,0.0,97,0.00,CLR,,0.00,0.0,WeatherDisplay:10.37,2013-07-31 10:58:00,
2013-07-31 06:00:00,70.4,69.5,29.98,NE,43,0.0,0.0,97,0.00,CLR,,0.00,0.0,WeatherDisplay:10.37,2013-07-31 11:00:00,
2013-07-31 06:01:00,70.4,69.5,29.98,NE,43,0.0,0.0,97,0.00,CLR,,0.00,0.0,WeatherDisplay:10.37,2013-07-31 11:01:00,
2013-07-31 06:02:00,70.4,69.5,29.98,NE,43,0.0,0.0,97,0.00,CLR,,0.00,0.0,WeatherDisplay:10.37,2013-07-31 11:02:00,
2013-07-31 06:03:00,70.4,69.5,29.98,NE,43,0.0,0.0,97,0.00,CLR,,0.00,0.0,WeatherDisplay:10.37,2013-07-31 11:03:00,
2013-07-31 06:05:00,70.4,69.5,29.98,NE,43,0.3,2.3,97,0.00,CLR,,0.00,0.0,WeatherDisplay:10.37,2013-07-31 11:05:00,
2013-07-31 06:07:00,70.4,69.5,29.98,NE,43,0.0,0.0,97,0.00,CLR,,0.00,0.0,WeatherDisplay:10.37,2013-07-31 11:07:00,
2013-07-31 06:08:00,70.4,69.5,29.98,NE,43,0.1,1.0,97,0.00,CLR,,0.00,0.0,WeatherDisplay:10.37,2013-07-31 11:08:00,
2013-07-31 06:11:00,70.4,69.5,29.98,NE,43,0.0,0.0,97,0.00,CLR,,0.00,0.0,WeatherDisplay:10.37,2013-07-31 11:11:00,
2013-07-31 06:12:00,70.4,69.5,29.98,NE,43,0.2,0.0,97,0.00,CLR,,0.00,0.0,WeatherDisplay:10.37,2013-07-31 11:12:00,
2013-07-31 06:13:00,70.4,69.5,29.98,NE,43,0.2,1.2,97,0.00,CLR,,0.00,0.0,WeatherDisplay:10.37,2013-07-31 11:13:00,
2013-07-31 06:14:00,70.4,69.5,29.98,NE,43,0.0,0.0,97,0.00,CLR,,0.00,0.0,WeatherDisplay:10.37,2013-07-31 11:14:00,
2013-07-31 06:17:00,70.4,69.5,29.98,NE,43,0.0,1.2,97,0.00,CLR,,0.00,0.0,WeatherDisplay:10.37,2013-07-31 11:17:00,
2013-07-31 06:18:00,70.4,69.5,29.98,NE,43,0.0,1.0,97,0.00,CLR,,0.00,0.0,WeatherDisplay:10.37,2013-07-31 11:18:00,
2013-07-31 06:19:00,70.4,69.5,29.99,NE,43,0.1,1.2,97,0.00,CLR,,0.00,0.0,WeatherDisplay:10.37,2013-07-31 11:19:00,
2013-07-31 06:22:00,70.4,69.5,29.98,NE,43,0.1,1.0,97,0.00,CLR,,0.00,0.0,WeatherDisplay:10.37,2013-07-31 11:22:00,
2013-07-31 06:23:00,70.4,69.5,29.98,NE,43,0.3,1.2,97,0.00,CLR,,0.00,0.0,WeatherDisplay:10.37,2013-07-31 11:23:00,
2013-07-31 06:24:00,70.4,69.5,29.98,NE,43,0.0,1.2,97,0.00,CLR,,0.00,0.0,WeatherDisplay:10.37,2013-07-31 11:24:00,
2013-07-31 06:27:00,70.4,69.5,29.99,NE,43,0.0,0.0,97,0.00,CLR,,0.00,0.0,WeatherDisplay:10.37,2013-07-31 11:27:00,
2013-07-31 06:28:00,70.4,69.5,29.99,NE,43,0.0,0.0,97,0.00,CLR,,0.00,0.0,WeatherDisplay:10.37,2013-07-31 11:28:00,
2013-07-31 06:29:00,70.4,69.5,29.99,NE,43,0.1,0.0,97,0.00,CLR,,0.00,5.0,WeatherDisplay:10.37,2013-07-31 11:29:00,
2013-07-31 06:33:00,70.5,69.6,29.99,NE,43,0.0,0.0,97,0.00,CLR,,0.00,5.0,WeatherDisplay:10.37,2013-07-31 11:33:00,
2013-07-31 06:34:00,70.5,69.6,29.99,NE,43,0.0,0.0,97,0.00,CLR,,0.00,5.0,WeatherDisplay:10.37,2013-07-31 11:34:00,
2013-07-31 06:35:00,70.5,69.6,29.99,NE,43,0.0,0.0,97,0.00,CLR,,0.00,5.0,WeatherDisplay:10.37,2013-07-31 11:35:00,
2013-07-31 06:38:00,70.5,69.6,29.99,NE,43,0.5,2.3,97,0.00,CLR,,0.00,7.0,WeatherDisplay:10.37,2013-07-31 11:38:00,
2013-07-31 06:39:00,70.5,69.6,29.99,NE,43,0.0,1.2,97,0.00,CLR,,0.00,7.0,WeatherDisplay:10.37,2013-07-31 11:39:00,
2013-07-31 06:40:00,70.5,69.6,29.99,NE,43,0.0,0.0,97,0.00,CLR,,0.00,7.0,WeatherDisplay:10.37,2013-07-31 11:40:00,
2013-07-31 06:43:00,70.5,69.6,29.99,NE,43,0.0,1.2,97,0.00,BKN,,0.00,9.0,WeatherDisplay:10.37,2013-07-31 11:43:00,
2013-07-31 06:44:00,70.6,69.7,29.99,NE,43,0.0,0.0,97,0.00,BKN,,0.00,9.0,WeatherDisplay:10.37,2013-07-31 11:44:00,
2013-07-31 06:45:00,70.6,69.7,29.99,NE,43,0.0,0.0,97,0.00,BKN,,0.00,9.0,WeatherDisplay:10.37,2013-07-31 11:45:00,
2013-07-31 06:48:00,70.6,69.7,29.99,NE,43,0.0,0.0,97,0.00,BKN,,0.00,12.0,WeatherDisplay:10.37,2013-07-31 11:48:00,
2013-07-31 06:49:00,70.6,69.7,29.99,NE,43,0.3,1.0,97,0.00,BKN,,0.00,12.0,WeatherDisplay:10.37,2013-07-31 11:49:00,
2013-07-31 06:50:00,70.6,69.7,29.99,NE,43,0.4,1.2,97,0.00,BKN,,0.00,12.0,WeatherDisplay:10.37,2013-07-31 11:50:00,
2013-07-31 06:53:00,70.6,69.7,30.00,NE,43,0.3,0.0,97,0.00,BKN,,0.00,16.0,WeatherDisplay:10.37,2013-07-31 11:53:00,
2013-07-31 06:55:00,70.6,69.7,30.00,NE,43,0.0,1.2,97,0.00,BKN,,0.00,19.0,WeatherDisplay:10.37,2013-07-31 11:55:00,
2013-07-31 06:58:00,70.7,69.8,30.00,East,82,0.0,2.3,97,0.00,BKN,,0.00,23.0,WeatherDisplay:10.37,2013-07-31 11:58:00,
2013-07-31 07:00:00,70.8,69.9,30.00,East,82,0.0,1.2,97,0.00,BKN,,0.00,25.0,WeatherDisplay:10.37,2013-07-31 12:00:00,
2013-07-31 07:01:00,70.8,69.9,30.00,East,82,0.0,1.2,97,0.00,BKN,,0.00,25.0,WeatherDisplay:10.37,2013-07-31 12:01:00,
2013-07-31 07:04:00,70.8,69.9,30.00,East,82,0.0,0.0,97,0.00,BKN,,0.00,26.0,WeatherDisplay:10.37,2013-07-31 12:04:00,
2013-07-31 07:05:00,70.8,69.9,30.00,East,81,0.7,2.0,97,0.00,BKN,,0.00,26.0,WeatherDisplay:10.37,2013-07-31 12:05:00,
2013-07-31 07:06:00,70.8,69.9,30.00,East,81,1.2,2.3,97,0.00,BKN,,0.00,26.0,WeatherDisplay:10.37,2013-07-31 12:06:00,
2013-07-31 07:09:00,70.8,69.9,30.00,East,81,0.0,0.0,97,0.00,BKN,,0.00,26.0,WeatherDisplay:10.37,2013-07-31 12:09:00,
2013-07-31 07:11:00,70.8,69.9,30.00,East,81,0.0,0.0,97,0.00,BKN,,0.00,26.0,WeatherDisplay:10.37,2013-07-31 12:11:00,
2013-07-31 07:12:00,70.8,69.9,30.00,East,81,0.0,0.0,97,0.00,BKN,,0.00,26.0,WeatherDisplay:10.37,2013-07-31 12:12:00,
2013-07-31 07:14:00,70.8,69.9,30.00,East,81,0.0,0.0,97,0.00,SCT,,0.00,28.0,WeatherDisplay:10.37,2013-07-31 12:14:00,
2013-07-31 07:15:00,70.8,69.9,30.01,East,81,0.0,0.0,97,0.00,SCT,,0.00,28.0,WeatherDisplay:10.37,2013-07-31 12:15:00,
2013-07-31 07:17:00,70.8,69.9,30.01,NE,46,0.7,2.0,97,0.00,SCT,,0.00,32.0,WeatherDisplay:10.37,2013-07-31 12:17:00,
2013-07-31 07:18:00,70.8,69.9,30.01,NE,46,0.7,2.3,97,0.00,FEW,,0.00,33.0,WeatherDisplay:10.37,2013-07-31 12:18:00,
2013-07-31 07:19:00,70.8,69.9,30.01,NE,46,0.4,1.2,97,0.00,CLR,,0.00,37.0,WeatherDisplay:10.37,2013-07-31 12:19:00,
2013-07-31 07:20:00,70.8,69.9,30.01,NNE,30,0.8,1.2,97,0.00,CLR,,0.00,42.0,WeatherDisplay:10.37,2013-07-31 12:20:00,
2013-07-31 07:22:00,70.8,69.9,30.01,NNW,333,1.3,3.5,97,0.00,CLR,,0.00,49.0,WeatherDisplay:10.37,2013-07-31 12:22:00,
2013-07-31 07:23:00,70.8,69.9,30.01,NNW,333,0.2,2.3,97,0.00,CLR,,0.00,47.0,WeatherDisplay:10.37,2013-07-31 12:23:00,
2013-07-31 07:24:00,70.8,69.9,30.01,NNW,333,0.6,2.0,97,0.00,CLR,,0.00,42.0,WeatherDisplay:10.37,2013-07-31 12:24:00,
2013-07-31 07:25:00,70.8,69.9,30.01,NW,311,1.0,2.3,97,0.00,CLR,,0.00,42.0,WeatherDisplay:10.37,2013-07-31 12:25:00,
2013-07-31 07:27:00,70.9,70.0,30.01,North,355,0.4,2.3,97,0.00,CLR,,0.00,39.0,WeatherDisplay:10.37,2013-07-31 12:27:00,
2013-07-31 07:28:00,70.9,70.0,30.01,North,355,0.2,1.2,97,0.00,CLR,,0.00,39.0,WeatherDisplay:10.37,2013-07-31 12:28:00,
2013-07-31 07:30:00,70.9,70.0,30.01,North,355,0.6,1.2,97,0.00,CLR,,0.00,37.0,WeatherDisplay:10.37,2013-07-31 12:30:00,
2013-07-31 07:32:00,71.1,70.2,30.01,North,355,0.0,0.0,97,0.00,CLR,,0.00,37.0,WeatherDisplay:10.37,2013-07-31 12:32:00,
2013-07-31 07:33:00,71.1,70.2,30.01,North,355,0.0,0.0,97,0.00,CLR,,0.00,37.0,WeatherDisplay:10.37,2013-07-31 12:33:00,
2013-07-31 07:35:00,71.2,70.0,30.01,North,355,0.0,0.0,96,0.00,CLR,,0.00,37.0,WeatherDisplay:10.37,2013-07-31 12:35:00,
2013-07-31 07:38:00,71.3,70.1,30.01,ENE,58,0.1,2.3,96,0.00,CLR,,0.00,40.0,WeatherDisplay:10.37,2013-07-31 12:38:00,
2013-07-31 07:40:00,71.3,70.1,30.01,NNW,333,2.7,4.6,96,0.00,CLR,,0.00,39.0,WeatherDisplay:10.37,2013-07-31 12:40:00,
2013-07-31 07:43:00,71.3,70.1,30.02,NNW,333,2.0,3.5,96,0.00,CLR,,0.00,26.0,WeatherDisplay:10.37,2013-07-31 12:43:00,
2013-07-31 07:45:00,71.4,70.2,30.02,NNW,333,0.2,2.0,96,0.00,CLR,,0.00,28.0,WeatherDisplay:10.37,2013-07-31 12:45:00,
2013-07-31 07:48:00,71.4,70.2,30.02,NNW,336,1.5,2.3,96,0.00,CLR,,0.00,30.0,WeatherDisplay:10.37,2013-07-31 12:48:00,
2013-07-31 07:50:00,71.4,69.9,30.02,NNW,327,1.1,3.0,95,0.00,CLR,,0.00,33.0,WeatherDisplay:10.37,2013-07-31 12:50:00,
2013-07-31 07:53:00,71.5,70.0,30.02,NNW,339,2.7,3.5,95,0.00,CLR,,0.00,37.0,WeatherDisplay:10.37,2013-07-31 12:53:00,
2013-07-31 07:55:00,71.5,70.0,30.02,NNE,15,0.6,2.0,95,0.00,CLR,,0.00,40.0,WeatherDisplay:10.37,2013-07-31 12:55:00,
2013-07-31 07:58:00,71.5,70.0,30.02,NNW,329,1.5,2.3,95,0.00,CLR,,0.00,47.0,WeatherDisplay:10.37,2013-07-31 12:58:00,
2013-07-31 07:59:00,71.5,70.0,30.02,NNW,329,1.1,3.5,95,0.00,CLR,,0.00,47.0,WeatherDisplay:10.37,2013-07-31 12:59:00,
2013-07-31 08:01:00,71.5,70.0,30.02,NNE,32,0.8,2.3,95,0.00,OVC,,0.00,54.0,WeatherDisplay:10.37,2013-07-31 13:01:00,
2013-07-31 08:03:00,71.5,70.0,30.02,North,5,0.6,2.3,95,0.00,OVC,,0.00,62.0,WeatherDisplay:10.37,2013-07-31 13:03:00,
2013-07-31 08:04:00,71.5,70.0,30.02,NNE,22,1.5,3.0,95,0.00,OVC,,0.00,70.0,WeatherDisplay:10.37,2013-07-31 13:04:00,
2013-07-31 08:05:00,71.5,70.0,30.02,North,355,1.8,3.5,95,0.00,OVC,,0.00,70.0,WeatherDisplay:10.37,2013-07-31 13:05:00,
2013-07-31 08:06:00,71.5,70.0,30.02,NNE,23,1.4,3.5,95,0.00,OVC,,0.00,77.0,WeatherDisplay:10.37,2013-07-31 13:06:00,
2013-07-31 08:08:00,71.6,70.1,30.02,NNW,335,2.3,4.6,95,0.00,OVC,,0.00,91.0,WeatherDisplay:10.37,2013-07-31 13:08:00,
2013-07-31 08:09:00,71.7,70.2,30.03,North,355,0.9,3.5,95,0.00,OVC,,0.00,76.0,WeatherDisplay:10.37,2013-07-31 13:09:00,
2013-07-31 08:10:00,71.7,70.2,30.02,NNW,328,1.3,2.3,95,0.00,OVC,,0.00,76.0,WeatherDisplay:10.37,2013-07-31 13:10:00,
2013-07-31 08:11:00,71.7,70.2,30.02,NW,321,2.8,3.5,95,0.00,OVC,,0.00,72.0,WeatherDisplay:10.37,2013-07-31 13:11:00,
2013-07-31 08:14:00,71.7,70.2,30.02,NW,325,1.3,2.3,95,0.00,OVC,,0.00,84.0,WeatherDisplay:10.37,2013-07-31 13:14:00,
2013-07-31 08:15:00,71.7,70.2,30.02,NNW,332,1.8,2.3,95,0.00,OVC,,0.00,76.0,WeatherDisplay:10.37,2013-07-31 13:15:00,
2013-07-31 08:16:00,71.8,70.3,30.02,North,355,2.2,3.5,95,0.00,OVC,,0.00,77.0,WeatherDisplay:10.37,2013-07-31 13:16:00,
2013-07-31 08:17:00,71.8,70.0,30.02,NW,317,2.3,4.6,94,0.00,OVC,,0.00,79.0,WeatherDisplay:10.37,2013-07-31 13:17:00,
2013-07-31 08:19:00,71.9,70.1,30.02,NNW,344,0.7,2.3,94,0.00,OVC,,0.00,93.0,WeatherDisplay:10.37,2013-07-31 13:19:00,
2013-07-31 08:20:00,71.9,70.1,30.02,North,360,1.1,3.5,94,0.00,OVC,,0.00,86.0,WeatherDisplay:10.37,2013-07-31 13:20:00,
2013-07-31 08:21:00,72.0,70.2,30.02,NNW,334,1.2,3.5,94,0.00,OVC,,0.00,90.0,WeatherDisplay:10.37,2013-07-31 13:21:00,
2013-07-31 08:22:00,72.0,70.2,30.02,NNW,334,0.9,3.5,94,0.00,OVC,,0.00,90.0,WeatherDisplay:10.37,2013-07-31 13:22:00,
2013-07-31 08:24:00,72.2,70.4,30.02,NNW,335,0.3,1.2,94,0.00,OVC,,0.00,144.0,WeatherDisplay:10.37,2013-07-31 13:24:00,
2013-07-31 08:25:00,72.3,70.2,30.02,NNW,335,0.2,1.2,93,0.00,OVC,,0.00,144.0,WeatherDisplay:10.37,2013-07-31 13:25:00,
2013-07-31 08:26:00,72.3,70.2,30.02,NE,42,1.1,2.3,93,0.00,OVC,,0.00,121.0,WeatherDisplay:10.37,2013-07-31 13:26:00,
2013-07-31 08:27:00,72.4,69.9,30.02,NNE,13,0.8,3.5,92,0.00,OVC,,0.00,121.0,WeatherDisplay:10.37,2013-07-31 13:27:00,
2013-07-31 08:29:00,72.4,69.9,30.02,NNW,336,2.0,3.0,92,0.00,OVC,,0.00,239.0,WeatherDisplay:10.37,2013-07-31 13:29:00,
2013-07-31 08:30:00,72.5,70.0,30.02,NNW,344,1.3,3.5,92,0.00,OVC,,0.00,283.0,WeatherDisplay:10.37,2013-07-31 13:30:00,
2013-07-31 08:31:00,72.5,70.0,30.02,North,5,1.9,3.5,92,0.00,OVC,,0.00,283.0,WeatherDisplay:10.37,2013-07-31 13:31:00,
2013-07-31 08:32:00,72.6,69.8,30.02,NNW,347,2.3,3.5,91,0.00,OVC,,0.00,111.0,WeatherDisplay:10.37,2013-07-31 13:32:00,
2013-07-31 08:33:00,72.6,69.8,30.02,NNW,347,1.0,2.3,91,0.00,OVC,,0.00,111.0,WeatherDisplay:10.37,2013-07-31 13:33:00,
2013-07-31 08:35:00,72.6,69.8,30.02,NW,309,0.8,3.0,91,0.00,OVC,,0.00,104.0,WeatherDisplay:10.37,2013-07-31 13:35:00,
2013-07-31 08:36:00,72.6,69.8,30.01,NW,320,1.5,3.5,91,0.00,OVC,,0.00,84.0,WeatherDisplay:10.37,2013-07-31 13:36:00,
2013-07-31 08:38:00,72.6,69.8,30.01,NE,38,0.2,1.2,91,0.00,OVC,,0.00,97.0,WeatherDisplay:10.37,2013-07-31 13:38:00,
2013-07-31 08:39:00,72.6,69.8,30.01,NE,37,1.0,2.3,91,0.00,OVC,,0.00,90.0,WeatherDisplay:10.37,2013-07-31 13:39:00,
2013-07-31 08:40:00,72.5,69.7,30.01,NE,37,0.1,2.3,91,0.00,OVC,,0.00,98.0,WeatherDisplay:10.37,2013-07-31 13:40:00,
2013-07-31 08:41:00,72.6,69.8,30.01,NE,37,0.1,1.2,91,0.00,OVC,,0.00,98.0,WeatherDisplay:10.37,2013-07-31 13:41:00,
2013-07-31 08:43:00,72.6,69.8,30.02,NE,37,0.0,0.0,91,0.00,OVC,,0.00,109.0,WeatherDisplay:10.37,2013-07-31 13:43:00,
2013-07-31 08:44:00,72.6,69.8,30.01,NE,37,0.0,0.0,91,0.00,OVC,,0.00,109.0,WeatherDisplay:10.37,2013-07-31 13:44:00,
2013-07-31 08:45:00,72.7,70.2,30.02,NE,37,0.7,2.0,92,0.00,OVC,,0.00,135.0,WeatherDisplay:10.37,2013-07-31 13:45:00,
2013-07-31 08:46:00,72.7,69.9,30.02,NE,37,1.1,2.3,91,0.00,OVC,,0.00,135.0,WeatherDisplay:10.37,2013-07-31 13:46:00,
2013-07-31 08:48:00,72.7,69.9,30.02,NW,326,1.0,3.0,91,0.00,OVC,,0.00,118.0,WeatherDisplay:10.37,2013-07-31 13:48:00,
2013-07-31 08:49:00,72.7,69.6,30.02,NNW,327,1.1,3.5,90,0.00,OVC,,0.00,142.0,WeatherDisplay:10.37,2013-07-31 13:49:00,
2013-07-31 08:50:00,72.8,69.7,30.01,NW,317,1.3,2.3,90,0.00,OVC,,0.00,373.0,WeatherDisplay:10.37,2013-07-31 13:50:00,
2013-07-31 08:52:00,72.8,69.7,30.02,NW,317,0.5,2.3,90,0.00,OVC,,0.00,371.0,WeatherDisplay:10.37,2013-07-31 13:52:00,
2013-07-31 08:54:00,73.0,69.6,30.02,NNW,340,1.9,3.5,89,0.00,OVC,,0.00,434.0,WeatherDisplay:10.37,2013-07-31 13:54:00,
2013-07-31 08:55:00,73.5,70.4,30.02,NNE,15,3.3,5.8,90,0.00,OVC,,0.00,406.0,WeatherDisplay:10.37,2013-07-31 13:55:00,
2013-07-31 08:57:00,73.9,70.5,30.02,NNW,327,1.6,2.3,89,0.00,OVC,,0.00,401.0,WeatherDisplay:10.37,2013-07-31 13:57:00,
2013-07-31 08:58:00,73.9,70.5,30.02,NW,322,1.5,5.0,89,0.00,OVC,,0.00,401.0,WeatherDisplay:10.37,2013-07-31 13:58:00,
2013-07-31 08:59:00,74.1,70.0,30.02,NNW,327,2.4,5.8,87,0.00,OVC,,0.00,413.0,WeatherDisplay:10.37,2013-07-31 13:59:00,
2013-07-31 09:00:00,74.2,70.1,30.02,NNW,327,1.3,3.5,87,0.00,OVC,,0.00,418.0,WeatherDisplay:10.37,2013-07-31 14:00:00,
2013-07-31 09:01:00,74.2,70.1,30.02,ENE,78,0.9,2.3,87,0.00,OVC,,0.00,415.0,WeatherDisplay:10.37,2013-07-31 14:01:00,
2013-07-31 09:03:00,74.4,70.3,30.02,NNE,24,0.1,1.2,87,0.00,OVC,,0.00,429.0,WeatherDisplay:10.37,2013-07-31 14:03:00,
2013-07-31 09:04:00,74.6,70.1,30.02,NNW,344,1.5,3.5,86,0.00,OVC,,0.00,441.0,WeatherDisplay:10.37,2013-07-31 14:04:00,
2013-07-31 09:05:00,74.7,70.2,30.02,WSW,254,1.7,3.5,86,0.00,OVC,,0.00,439.0,WeatherDisplay:10.37,2013-07-31 14:05:00,
2013-07-31 09:06:00,74.8,70.3,30.02,North,360,1.8,3.5,86,0.00,OVC,,0.00,439.0,WeatherDisplay:10.37,2013-07-31 14:06:00,
2013-07-31 09:08:00,75.3,71.2,30.02,NE,39,1.3,2.3,87,0.00,OVC,,0.00,452.0,WeatherDisplay:10.37,2013-07-31 14:08:00,
2013-07-31 09:09:00,75.2,70.4,30.02,NNE,23,1.2,2.3,85,0.00,OVC,,0.00,464.0,WeatherDisplay:10.37,2013-07-31 14:09:00,
2013-07-31 09:10:00,75.2,70.4,30.02,NNE,22,1.3,3.5,85,0.00,OVC,,0.00,459.0,WeatherDisplay:10.37,2013-07-31 14:10:00,
2013-07-31 09:11:00,75.3,70.8,30.02,NNE,22,0.8,2.3,86,0.00,OVC,,0.00,455.0,WeatherDisplay:10.37,2013-07-31 14:11:00,
2013-07-31 09:13:00,75.5,70.3,30.02,NNE,22,0.0,2.3,84,0.00,OVC,,0.00,446.0,WeatherDisplay:10.37,2013-07-31 14:13:00,
2013-07-31 09:15:00,75.7,70.5,30.02,NNE,22,0.4,1.2,84,0.00,OVC,,0.00,445.0,WeatherDisplay:10.37,2013-07-31 14:15:00,
2013-07-31 09:16:00,75.7,70.2,30.02,NNE,22,0.5,2.3,83,0.00,OVC,,0.00,450.0,WeatherDisplay:10.37,2013-07-31 14:16:00,
2013-07-31 09:17:00,75.6,70.1,30.02,NNE,22,0.1,1.2,83,0.00,OVC,,0.00,455.0,WeatherDisplay:10.37,2013-07-31 14:17:00,
2013-07-31 09:19:00,75.7,70.5,30.02,NNE,23,0.8,2.3,84,0.00,OVC,,0.00,454.0,WeatherDisplay:10.37,2013-07-31 14:19:00,
2013-07-31 09:20:00,75.7,70.2,30.02,NE,55,0.4,2.3,83,0.00,OVC,,0.00,454.0,WeatherDisplay:10.37,2013-07-31 14:20:00,
2013-07-31 09:21:00,75.7,70.2,30.02,NE,55,0.4,2.3,83,0.00,OVC,,0.00,343.0,WeatherDisplay:10.37,2013-07-31 14:21:00,
2013-07-31 09:22:00,75.8,69.9,30.02,NE,55,0.4,2.3,82,0.00,OVC,,0.00,408.0,WeatherDisplay:10.37,2013-07-31 14:22:00,
2013-07-31 09:24:00,75.6,70.1,30.01,ENE,66,0.2,1.2,83,0.00,OVC,,0.00,116.0,WeatherDisplay:10.37,2013-07-31 14:24:00,
2013-07-31 09:25:00,75.5,70.0,30.01,ENE,66,0.8,1.0,83,0.00,OVC,,0.00,127.0,WeatherDisplay:10.37,2013-07-31 14:25:00,
2013-07-31 09:26:00,75.5,70.0,30.01,ENE,66,0.9,2.3,83,0.00,OVC,,0.00,127.0,WeatherDisplay:10.37,2013-07-31 14:26:00,
2013-07-31 09:27:00,75.3,69.8,30.01,ENE,66,0.7,2.3,83,0.00,OVC,,0.00,102.0,WeatherDisplay:10.37,2013-07-31 14:27:00,
2013-07-31 09:29:00,75.1,69.6,30.01,ENE,66,0.0,1.2,83,0.00,OVC,,0.00,93.0,WeatherDisplay:10.37,2013-07-31 14:29:00,
2013-07-31 09:31:00,75.0,69.5,30.01,ENE,66,0.0,0.0,83,0.00,OVC,,0.00,156.0,WeatherDisplay:10.37,2013-07-31 14:31:00,
2013-07-31 09:33:00,75.1,69.6,30.01,ENE,66,0.0,0.0,83,0.00,OVC,,0.00,515.0,WeatherDisplay:10.37,2013-07-31 14:33:00,
2013-07-31 09:34:00,75.3,69.4,30.01,ENE,66,0.6,1.2,82,0.00,OVC,,0.00,515.0,WeatherDisplay:10.37,2013-07-31 14:34:00,
2013-07-31 09:35:00,75.5,70.3,30.01,ENE,66,0.0,1.2,84,0.00,OVC,,0.00,526.0,WeatherDisplay:10.37,2013-07-31 14:35:00,
2013-07-31 09:37:00,75.9,70.4,30.01,ENE,66,0.2,1.2,83,0.00,OVC,,0.00,533.0,WeatherDisplay:10.37,2013-07-31 14:37:00,
2013-07-31 09:38:00,76.4,70.5,30.01,NW,321,2.1,3.5,82,0.00,OVC,,0.00,538.0,WeatherDisplay:10.37,2013-07-31 14:38:00,
2013-07-31 09:39:00,76.8,70.9,30.01,North,5,2.5,2.5,82,0.00,OVC,,0.00,561.0,WeatherDisplay:10.37,2013-07-31 14:39:00,
2013-07-31 09:40:00,77.1,70.8,30.02,NW,321,1.0,3.5,81,0.00,OVC,,0.00,561.0,WeatherDisplay:10.37,2013-07-31 14:40:00,
2013-07-31 09:42:00,77.5,70.8,30.02,NNE,15,2.0,3.5,80,0.00,OVC,,0.00,552.0,WeatherDisplay:10.37,2013-07-31 14:42:00,
2013-07-31 09:43:00,77.5,70.5,30.02,NE,45,2.3,3.5,79,0.00,OVC,,0.00,552.0,WeatherDisplay:10.37,2013-07-31 14:43:00,
2013-07-31 09:44:00,77.5,70.1,30.02,NE,45,0.4,3.5,78,0.00,OVC,,0.00,554.0,WeatherDisplay:10.37,2013-07-31 14:44:00,
2013-07-31 09:46:00,77.8,71.1,30.02,NE,44,1.2,2.3,80,0.00,OVC,,0.00,554.0,WeatherDisplay:10.37,2013-07-31 14:46:00,
2013-07-31 09:47:00,77.8,70.4,30.02,NNW,327,2.8,3.5,78,0.00,OVC,,0.00,554.0,WeatherDisplay:10.37,2013-07-31 14:47:00,
2013-07-31 09:48:00,77.6,70.2,30.02,NW,304,3.3,4.6,78,0.00,OVC,,0.00,156.0,WeatherDisplay:10.37,2013-07-31 14:48:00,
2013-07-31 09:49:00,77.4,70.4,30.02,NNW,344,3.9,5.0,79,0.00,OVC,,0.00,197.0,WeatherDisplay:10.37,2013-07-31 14:49:00,
2013-07-31 09:51:00,77.2,70.2,30.03,NNE,24,2.9,5.8,79,0.00,OVC,,0.00,197.0,WeatherDisplay:10.37,2013-07-31 14:51:00,
2013-07-31 09:52:00,77.1,70.1,30.03,NNE,28,3.0,4.6,79,0.00,OVC,,0.00,197.0,WeatherDisplay:10.37,2013-07-31 14:52:00,
2013-07-31 09:53:00,77.1,70.1,30.03,ENE,61,2.6,4.6,79,0.00,OVC,,0.00,234.0,WeatherDisplay:10.37,2013-07-31 14:53:00,
2013-07-31 09:54:00,77.1,70.1,30.03,ENE,61,0.7,3.5,79,0.00,OVC,,0.00,232.0,WeatherDisplay:10.37,2013-07-31 14:54:00,
2013-07-31 09:56:00,77.2,70.2,30.02,ENE,58,1.4,3.5,79,0.00,OVC,,0.00,232.0,WeatherDisplay:10.37,2013-07-31 14:56:00,
2013-07-31 09:58:00,77.4,70.4,30.02,NE,35,1.3,3.5,79,0.00,OVC,,0.00,163.0,WeatherDisplay:10.37,2013-07-31 14:58:00,
2013-07-31 09:59:00,77.4,69.6,30.02,North,360,2.8,6.0,77,0.00,OVC,,0.00,174.0,WeatherDisplay:10.37,2013-07-31 14:59:00,
2013-07-31 10:00:00,77.3,69.5,30.02,WNW,295,4.6,4.6,77,0.00,OVC,,0.00,171.0,WeatherDisplay:10.37,2013-07-31 15:00:00,
2013-07-31 10:02:00,77.0,70.0,30.02,NW,324,0.9,3.5,79,0.00,OVC,,0.00,171.0,WeatherDisplay:10.37,2013-07-31 15:02:00,
2013-07-31 10:03:00,77.0,70.4,30.02,NNW,346,2.4,3.5,80,0.00,OVC,,0.00,171.0,WeatherDisplay:10.37,2013-07-31 15:03:00,
2013-07-31 10:04:00,77.1,70.5,30.02,NNE,25,2.4,5.8,80,0.00,OVC,,0.00,664.0,WeatherDisplay:10.37,2013-07-31 15:04:00,
2013-07-31 10:05:00,77.2,70.9,30.02,North,9,2.1,5.8,81,0.00,OVC,,0.00,664.0,WeatherDisplay:10.37,2013-07-31 15:05:00,
2013-07-31 10:07:00,77.3,69.9,30.02,NW,315,2.6,5.8,78,0.00,OVC,,0.00,178.0,WeatherDisplay:10.37,2013-07-31 15:07:00,
2013-07-31 10:08:00,77.2,69.8,30.02,NNW,327,3.2,5.0,78,0.00,OVC,,0.00,155.0,WeatherDisplay:10.37,2013-07-31 15:08:00,
2013-07-31 10:09:00,77.0,70.0,30.02,ENE,57,3.2,5.8,79,0.00,OVC,,0.00,132.0,WeatherDisplay:10.37,2013-07-31 15:09:00,
2013-07-31 10:10:00,76.8,69.8,30.03,NNW,337,2.7,6.0,79,0.00,OVC,,0.00,142.0,WeatherDisplay:10.37,2013-07-31 15:10:00,
2013-07-31 10:12:00,76.4,69.8,30.02,North,355,2.8,4.6,80,0.00,OVC,,0.00,158.0,WeatherDisplay:10.37,2013-07-31 15:12:00,
2013-07-31 10:13:00,76.3,69.7,30.02,North,355,2.4,3.5,80,0.00,OVC,,0.00,158.0,WeatherDisplay:10.37,2013-07-31 15:13:00,
2013-07-31 10:14:00,76.5,70.2,30.02,NNW,329,2.9,4.6,81,0.00,OVC,,0.00,722.0,WeatherDisplay:10.37,2013-07-31 15:14:00,
2013-07-31 10:15:00,76.5,69.5,30.02,NNW,329,2.7,4.6,79,0.00,OVC,,0.00,722.0,WeatherDisplay:10.37,2013-07-31 15:15:00,
2013-07-31 10:18:00,76.9,69.9,30.02,ENE,78,3.0,5.8,79,0.00,OVC,,0.00,135.0,WeatherDisplay:10.37,2013-07-31 15:18:00,
2013-07-31 10:19:00,76.8,69.8,30.02,North,4,1.0,6.0,79,0.00,OVC,,0.00,146.0,WeatherDisplay:10.37,2013-07-31 15:19:00,
2013-07-31 10:20:00,76.8,69.8,30.02,NE,52,2.9,5.8,79,0.00,OVC,,0.00,146.0,WeatherDisplay:10.37,2013-07-31 15:20:00,
2013-07-31 10:23:00,76.9,69.9,30.03,NW,311,2.5,5.8,79,0.00,OVC,,0.00,499.0,WeatherDisplay:10.37,2013-07-31 15:23:00,
2013-07-31 10:25:00,77.4,70.4,30.03,NNW,346,3.6,5.8,79,0.00,OVC,,0.00,703.0,WeatherDisplay:10.37,2013-07-31 15:25:00,
2013-07-31 10:28:00,77.6,69.4,30.03,NNE,22,3.6,5.8,76,0.00,OVC,,0.00,733.0,WeatherDisplay:10.37,2013-07-31 15:28:00,
2013-07-31 10:30:00,77.6,69.4,30.03,North,355,2.1,4.0,76,0.00,OVC,,0.00,141.0,WeatherDisplay:10.37,2013-07-31 15:30:00,
2013-07-31 10:33:00,77.0,68.9,30.03,ENE,76,1.3,3.5,76,0.00,OVC,,0.00,766.0,WeatherDisplay:10.37,2013-07-31 15:33:00,
2013-07-31 10:35:00,77.1,69.7,30.03,North,11,0.2,3.0,78,0.00,OVC,,0.00,766.0,WeatherDisplay:10.37,2013-07-31 15:35:00,
2013-07-31 10:38:00,78.2,69.6,30.03,North,11,2.4,4.6,75,0.00,OVC,,0.00,807.0,WeatherDisplay:10.37,2013-07-31 15:38:00,
2013-07-31 10:40:00,78.7,69.3,30.03,North,5,1.6,3.5,73,0.00,OVC,,0.00,807.0,WeatherDisplay:10.37,2013-07-31 15:40:00,
2013-07-31 10:41:00,78.7,68.9,30.03,NE,36,2.1,5.0,72,0.00,OVC,,0.00,199.0,WeatherDisplay:10.37,2013-07-31 15:41:00,
2013-07-31 10:43:00,78.1,69.1,30.03,NNE,29,3.5,4.6,74,0.00,OVC,,0.00,144.0,WeatherDisplay:10.37,2013-07-31 15:43:00,
2013-07-31 10:44:00,78.1,69.1,30.03,NNW,344,3.5,7.0,74,0.00,OVC,,0.00,144.0,WeatherDisplay:10.37,2013-07-31 15:44:00,
2013-07-31 10:45:00,77.6,69.0,30.03,NNW,344,4.0,7.0,75,0.00,OVC,,0.00,144.0,WeatherDisplay:10.37,2013-07-31 15:45:00,
2013-07-31 10:46:00,77.4,68.9,30.03,NNW,348,4.5,8.1,75,0.00,OVC,,0.00,172.0,WeatherDisplay:10.37,2013-07-31 15:46:00,
2013-07-31 10:49:00,76.8,69.0,30.03,NNE,33,4.1,8.0,77,0.00,OVC,,0.00,172.0,WeatherDisplay:10.37,2013-07-31 15:49:00,
2013-07-31 10:50:00,76.7,68.9,30.03,NNE,30,3.1,8.1,77,0.00,OVC,,0.00,193.0,WeatherDisplay:10.37,2013-07-31 15:50:00,
2013-07-31 10:52:00,76.9,68.8,30.03,ESE,112,1.8,3.5,76,0.00,OVC,,0.00,766.0,WeatherDisplay:10.37,2013-07-31 15:52:00,
2013-07-31 10:54:00,77.6,69.8,30.03,East,88,1.8,3.5,77,0.00,OVC,,0.00,784.0,WeatherDisplay:10.37,2013-07-31 15:54:00,
2013-07-31 10:55:00,78.2,70.0,30.03,NNE,25,2.6,3.5,76,0.00,OVC,,0.00,798.0,WeatherDisplay:10.37,2013-07-31 15:55:00,
2013-07-31 10:57:00,78.6,68.8,30.03,North,11,3.4,8.1,72,0.00,OVC,,0.00,798.0,WeatherDisplay:10.37,2013-07-31 15:57:00,
2013-07-31 10:59:00,78.9,68.7,30.03,North,355,2.9,6.9,71,0.00,OVC,,0.00,793.0,WeatherDisplay:10.37,2013-07-31 15:59:00,
2013-07-31 11:00:00,79.1,69.3,30.03,NNE,22,2.8,4.6,72,0.00,OVC,,0.00,784.0,WeatherDisplay:10.37,2013-07-31 16:00:00,
2013-07-31 11:02:00,79.5,68.9,30.03,NNW,343,2.8,6.9,70,0.00,OVC,,0.00,798.0,WeatherDisplay:10.37,2013-07-31 16:02:00,
2013-07-31 11:04:00,79.6,69.4,30.03,NNE,20,3.5,6.9,71,0.00,OVC,,0.00,185.0,WeatherDisplay:10.37,2013-07-31 16:04:00,
2013-07-31 11:05:00,79.4,68.8,30.03,North,355,4.3,6.0,70,0.00,OVC,,0.00,134.0,WeatherDisplay:10.37,2013-07-31 16:05:00,
2013-07-31 11:07:00,79.0,68.4,30.03,NNE,28,2.6,4.6,70,0.00,OVC,,0.00,134.0,WeatherDisplay:10.37,2013-07-31 16:07:00,
2013-07-31 11:09:00,78.5,67.5,30.03,NNW,332,4.0,6.9,69,0.00,OVC,,0.00,761.0,WeatherDisplay:10.37,2013-07-31 16:09:00,
2013-07-31 11:10:00,78.7,68.1,30.03,NE,36,3.2,5.8,70,0.00,OVC,,0.00,775.0,WeatherDisplay:10.37,2013-07-31 16:10:00,
2013-07-31 11:12:00,79.0,68.8,30.03,North,5,3.4,4.6,71,0.00,OVC,,0.00,775.0,WeatherDisplay:10.37,2013-07-31 16:12:00,
2013-07-31 11:13:00,79.2,68.6,30.03,NE,41,4.0,6.0,70,0.00,OVC,,0.00,770.0,WeatherDisplay:10.37,2013-07-31 16:13:00,
2013-07-31 11:14:00,79.2,68.1,30.03,NNE,13,1.4,6.9,69,0.00,OVC,,0.00,770.0,WeatherDisplay:10.37,2013-07-31 16:14:00,
2013-07-31 11:15:00,79.3,68.2,30.03,NNE,24,1.6,6.0,69,0.00,OVC,,0.00,777.0,WeatherDisplay:10.37,2013-07-31 16:15:00,
2013-07-31 11:16:00,79.4,67.9,30.03,NE,42,4.0,5.8,68,0.00,OVC,,0.00,789.0,WeatherDisplay:10.37,2013-07-31 16:16:00,
2013-07-31 11:17:00,79.4,67.9,30.03,NE,52,1.6,5.8,68,0.00,OVC,,0.00,809.0,WeatherDisplay:10.37,2013-07-31 16:17:00,
2013-07-31 11:18:00,79.7,69.0,30.03,NNW,331,2.3,3.5,70,0.00,OVC,,0.00,838.0,WeatherDisplay:10.37,2013-07-31 16:18:00,
2013-07-31 11:20:00,79.9,67.5,30.03,NW,309,3.5,6.9,66,0.00,OVC,,0.00,214.0,WeatherDisplay:10.37,2013-07-31 16:20:00,
2013-07-31 11:21:00,79.7,67.3,30.03,NNE,33,4.4,6.9,66,0.00,OVC,,0.00,214.0,WeatherDisplay:10.37,2013-07-31 16:21:00,
2013-07-31 11:22:00,79.3,67.0,30.03,West,263,6.2,9.2,66,0.00,OVC,,0.00,176.0,WeatherDisplay:10.37,2013-07-31 16:22:00,
2013-07-31 11:23:00,79.1,66.8,30.03,North,355,4.2,9.2,66,0.00,OVC,,0.00,142.0,WeatherDisplay:10.37,2013-07-31 16:23:00,
2013-07-31 11:25:00,78.8,67.3,30.03,NE,47,2.0,6.9,68,0.00,OVC,,0.00,128.0,WeatherDisplay:10.37,2013-07-31 16:25:00,
2013-07-31 11:26:00,78.7,67.2,30.03,NE,34,1.8,3.5,68,0.00,OVC,,0.00,807.0,WeatherDisplay:10.37,2013-07-31 16:26:00,
2013-07-31 11:28:00,78.8,66.9,30.02,NNE,27,2.1,3.5,67,0.00,OVC,,0.00,851.0,WeatherDisplay:10.37,2013-07-31 16:28:00,
2013-07-31 11:30:00,79.8,68.7,30.02,NW,320,1.6,3.5,69,0.00,OVC,,0.00,875.0,WeatherDisplay:10.37,2013-07-31 16:30:00,
2013-07-31 11:33:00,80.5,68.5,30.03,North,360,3.9,9.0,67,0.00,OVC,,0.00,355.0,WeatherDisplay:10.37,2013-07-31 16:33:00,
2013-07-31 11:35:00,80.1,68.2,30.03,ENE,69,4.3,8.1,67,0.00,OVC,,0.00,355.0,WeatherDisplay:10.37,2013-07-31 16:35:00,
2013-07-31 11:36:00,80.1,67.7,30.03,North,355,3.7,6.9,66,0.00,OVC,,0.00,355.0,WeatherDisplay:10.37,2013-07-31 16:36:00,
2013-07-31 11:38:00,79.8,67.4,30.02,NNE,30,3.1,4.6,66,0.00,OVC,,0.00,209.0,WeatherDisplay:10.37,2013-07-31 16:38:00,
2013-07-31 11:39:00,79.6,67.7,30.03,ENE,62,3.0,4.6,67,0.00,OVC,,0.00,199.0,WeatherDisplay:10.37,2013-07-31 16:39:00,
2013-07-31 11:40:00,79.2,67.7,30.03,NNE,20,3.0,6.9,68,0.00,OVC,,0.00,199.0,WeatherDisplay:10.37,2013-07-31 16:40:00,
2013-07-31 11:42:00,78.8,66.5,30.03,NE,40,5.3,8.1,66,0.00,OVC,,0.00,272.0,WeatherDisplay:10.37,2013-07-31 16:42:00,
2013-07-31 11:43:00,78.7,66.8,30.03,NE,40,4.8,8.1,67,0.00,OVC,,0.00,272.0,WeatherDisplay:10.37,2013-07-31 16:43:00,
2013-07-31 11:44:00,78.5,67.1,30.03,NW,319,4.4,7.0,68,0.00,OVC,,0.00,784.0,WeatherDisplay:10.37,2013-07-31 16:44:00,
2013-07-31 11:46:00,78.5,66.6,30.03,North,5,3.3,5.8,67,0.00,OVC,,0.00,868.0,WeatherDisplay:10.37,2013-07-31 16:46:00,
2013-07-31 11:47:00,79.0,67.5,30.03,North,5,2.8,5.0,68,0.00,OVC,,0.00,888.0,WeatherDisplay:10.37,2013-07-31 16:47:00,
2013-07-31 11:48:00,79.2,67.7,30.03,North,10,2.3,4.6,68,0.00,OVC,,0.00,926.0,WeatherDisplay:10.37,2013-07-31 16:48:00,
2013-07-31 11:49:00,79.7,67.8,30.03,NE,35,2.1,4.0,67,0.00,OVC,,0.00,926.0,WeatherDisplay:10.37,2013-07-31 16:49:00,
2013-07-31 11:51:00,80.0,67.2,30.03,ENE,59,4.0,8.1,65,0.00,OVC,,0.00,241.0,WeatherDisplay:10.37,2013-07-31 16:51:00,
2013-07-31 11:52:00,79.7,66.4,30.03,NW,323,6.1,8.0,64,0.00,OVC,,0.00,218.0,WeatherDisplay:10.37,2013-07-31 16:52:00,
2013-07-31 11:53:00,79.6,66.8,30.03,NE,46,5.9,9.2,65,0.00,OVC,,0.00,209.0,WeatherDisplay:10.37,2013-07-31 16:53:00,
2013-07-31 11:54:00,79.4,66.6,30.03,NNE,25,3.9,8.1,65,0.00,OVC,,0.00,221.0,WeatherDisplay:10.37,2013-07-31 16:54:00,
2013-07-31 11:56:00,79.1,66.8,30.03,NNE,32,2.7,4.6,66,0.00,OVC,,0.00,865.0,WeatherDisplay:10.37,2013-07-31 16:56:00,
2013-07-31 11:57:00,79.1,65.9,30.03,NNE,12,4.4,6.0,64,0.00,OVC,,0.00,860.0,WeatherDisplay:10.37,2013-07-31 16:57:00,
2013-07-31 11:59:00,79.3,66.1,30.03,ENE,61,5.4,9.2,64,0.00,OVC,,0.00,851.0,WeatherDisplay:10.37,2013-07-31 16:59:00,
2013-07-31 12:01:00,79.6,66.8,30.03,NNE,31,1.5,3.5,65,0.00,OVC,,0.00,858.0,WeatherDisplay:10.37,2013-07-31 17:01:00,
2013-07-31 12:03:00,80.1,66.8,30.03,NNE,22,2.2,5.8,64,0.00,OVC,,0.00,889.0,WeatherDisplay:10.37,2013-07-31 17:03:00,
2013-07-31 12:04:00,80.5,65.8,30.03,NW,314,2.4,4.6,61,0.00,OVC,,0.00,902.0,WeatherDisplay:10.37,2013-07-31 17:04:00,
2013-07-31 12:05:00,80.5,65.8,30.03,North,5,2.1,3.5,61,0.00,OVC,,0.00,923.0,WeatherDisplay:10.37,2013-07-31 17:05:00,
2013-07-31 12:06:00,81.0,67.2,30.03,NE,43,1.9,3.5,63,0.00,OVC,,0.00,951.0,WeatherDisplay:10.37,2013-07-31 17:06:00,
2013-07-31 12:08:00,81.1,66.8,30.03,NNW,329,2.3,3.5,62,0.00,OVC,,0.00,951.0,WeatherDisplay:10.37,2013-07-31 17:08:00,
2013-07-31 12:09:00,81.1,65.9,30.03,NE,55,3.1,4.6,60,0.00,OVC,,0.00,237.0,WeatherDisplay:10.37,2013-07-31 17:09:00,
2013-07-31 12:10:00,81.1,65.9,30.03,ENE,63,3.0,5.0,60,0.00,OVC,,0.00,237.0,WeatherDisplay:10.37,2013-07-31 17:10:00,
2013-07-31 12:12:00,80.4,66.2,30.03,NE,37,3.8,8.1,62,0.00,OVC,,0.00,227.0,WeatherDisplay:10.37,2013-07-31 17:12:00,
2013-07-31 12:13:00,80.0,66.7,30.03,NW,319,4.1,8.1,64,0.00,OVC,,0.00,243.0,WeatherDisplay:10.37,2013-07-31 17:13:00,
2013-07-31 12:15:00,79.6,66.3,30.03,North,355,4.5,6.0,64,0.00,OVC,,0.00,993.0,WeatherDisplay:10.37,2013-07-31 17:15:00,
2013-07-31 12:17:00,79.9,66.6,30.03,ENE,64,2.5,4.6,64,0.00,OVC,,0.00,1005.0,WeatherDisplay:10.37,2013-07-31 17:17:00,
2013-07-31 12:19:00,80.7,68.3,30.03,West,277,2.7,6.9,66,0.00,OVC,,0.00,967.0,WeatherDisplay:10.37,2013-07-31 17:19:00,
2013-07-31 12:20:00,81.0,66.8,30.03,NE,49,2.5,6.9,62,0.00,OVC,,0.00,960.0,WeatherDisplay:10.37,2013-07-31 17:20:00,
2013-07-31 12:22:00,81.2,66.0,30.03,North,349,1.4,3.5,60,0.00,OVC,,0.00,1037.0,WeatherDisplay:10.37,2013-07-31 17:22:00,
2013-07-31 12:24:00,81.0,66.8,30.02,East,98,1.5,3.5,62,0.00,OVC,,0.00,283.0,WeatherDisplay:10.37,2013-07-31 17:24:00,
2013-07-31 12:25:00,80.9,67.1,30.03,ENE,67,3.8,8.1,63,0.00,OVC,,0.00,332.0,WeatherDisplay:10.37,2013-07-31 17:25:00,
2013-07-31 12:28:00,80.9,66.7,30.02,NE,51,4.1,9.2,62,0.00,OVC,,0.00,1028.0,WeatherDisplay:10.37,2013-07-31 17:28:00,
2013-07-31 12:29:00,81.0,67.2,30.03,NE,41,2.9,5.8,63,0.00,OVC,,0.00,988.0,WeatherDisplay:10.37,2013-07-31 17:29:00,
2013-07-31 12:30:00,81.2,67.9,30.02,NNW,347,3.1,5.8,64,0.00,OVC,,0.00,928.0,WeatherDisplay:10.37,2013-07-31 17:30:00,
2013-07-31 12:33:00,81.8,66.6,30.02,SW,225,3.1,4.0,60,0.00,OVC,,0.00,977.0,WeatherDisplay:10.37,2013-07-31 17:33:00,
2013-07-31 12:34:00,82.1,68.3,30.02,North,350,2.3,4.6,63,0.00,OVC,,0.00,1009.0,WeatherDisplay:10.37,2013-07-31 17:34:00,
2013-07-31 12:35:00,82.6,66.8,30.02,North,350,3.0,3.5,59,0.00,OVC,,0.00,244.0,WeatherDisplay:10.37,2013-07-31 17:35:00,
2013-07-31 12:38:00,82.0,67.2,30.02,ENE,61,3.1,4.6,61,0.00,OVC,,0.00,408.0,WeatherDisplay:10.37,2013-07-31 17:38:00,
2013-07-31 12:39:00,81.9,67.1,30.02,NNE,26,2.4,4.6,61,0.00,OVC,,0.00,281.0,WeatherDisplay:10.37,2013-07-31 17:39:00,
2013-07-31 12:41:00,80.9,65.7,30.01,North,351,3.0,5.8,60,0.00,OVC,,0.00,281.0,WeatherDisplay:10.37,2013-07-31 17:41:00,
2013-07-31 12:43:00,80.4,66.6,30.01,ENE,64,2.4,4.6,63,0.00,OVC,,0.00,932.0,WeatherDisplay:10.37,2013-07-31 17:43:00,
2013-07-31 12:44:00,80.5,66.7,30.01,NW,307,1.2,3.5,63,0.00,OVC,,0.00,895.0,WeatherDisplay:10.37,2013-07-31 17:44:00,
2013-07-31 12:46:00,80.9,66.2,30.01,NE,40,1.2,3.5,61,0.00,OVC,,0.00,877.0,WeatherDisplay:10.37,2013-07-31 17:46:00,
2013-07-31 12:48:00,81.5,67.2,30.01,NNE,24,2.5,3.5,62,0.00,OVC,,0.00,882.0,WeatherDisplay:10.37,2013-07-31 17:48:00,
2013-07-31 12:49:00,81.5,67.2,30.00,NNW,327,1.5,3.5,62,0.00,OVC,,0.00,879.0,WeatherDisplay:10.37,2013-07-31 17:49:00,
2013-07-31 12:51:00,82.2,67.4,30.00,North,349,2.3,3.5,61,0.00,OVC,,0.00,875.0,WeatherDisplay:10.37,2013-07-31 17:51:00,
2013-07-31 12:52:00,82.2,67.4,30.00,NNW,342,2.2,4.0,61,0.00,OVC,,0.00,875.0,WeatherDisplay:10.37,2013-07-31 17:52:00,
2013-07-31 12:54:00,82.4,67.1,30.00,NNE,17,0.6,2.3,60,0.00,OVC,,0.00,868.0,WeatherDisplay:10.37,2013-07-31 17:54:00,
2013-07-31 12:57:00,82.9,68.1,30.00,North,360,0.1,0.0,61,0.00,OVC,,0.00,877.0,WeatherDisplay:10.37,2013-07-31 17:57:00,
2013-07-31 12:59:00,83.5,67.7,30.00,NNW,327,1.4,4.6,59,0.00,OVC,,0.00,877.0,WeatherDisplay:10.37,2013-07-31 17:59:00,
2013-07-31 13:00:00,83.5,68.2,30.00,NNW,330,1.3,4.6,60,0.00,OVC,,0.00,877.0,WeatherDisplay:10.37,2013-07-31 18:00:00,
2013-07-31 13:02:00,83.4,67.6,30.00,ESE,119,2.1,4.6,59,0.00,OVC,,0.00,879.0,WeatherDisplay:10.37,2013-07-31 18:02:00,
2013-07-31 13:03:00,83.3,67.0,30.00,ENE,67,2.3,3.5,58,0.00,OVC,,0.00,879.0,WeatherDisplay:10.37,2013-07-31 18:03:00,
2013-07-31 13:04:00,83.2,67.4,30.00,NNW,340,2.0,5.0,59,0.00,OVC,,0.00,875.0,WeatherDisplay:10.37,2013-07-31 18:04:00,
2013-07-31 13:05:00,83.2,66.4,30.00,West,281,3.0,3.5,57,0.00,OVC,,0.00,877.0,WeatherDisplay:10.37,2013-07-31 18:05:00,
2013-07-31 13:07:00,83.0,66.2,30.00,ENE,71,2.0,3.5,57,0.00,OVC,,0.00,884.0,WeatherDisplay:10.37,2013-07-31 18:07:00,
2013-07-31 13:08:00,83.0,66.2,30.00,WNW,303,0.6,3.5,57,0.00,OVC,,0.00,886.0,WeatherDisplay:10.37,2013-07-31 18:08:00,
2013-07-31 13:10:00,83.3,67.0,30.00,NE,38,2.7,4.6,58,0.00,OVC,,0.00,893.0,WeatherDisplay:10.37,2013-07-31 18:10:00,
2013-07-31 13:13:00,83.4,68.1,30.00,East,96,1.9,3.5,60,0.00,OVC,,0.00,427.0,WeatherDisplay:10.37,2013-07-31 18:13:00,
2013-07-31 13:15:00,83.2,67.9,30.00,NW,309,4.1,7.0,60,0.00,OVC,,0.00,427.0,WeatherDisplay:10.37,2013-07-31 18:15:00,
2013-07-31 13:17:00,82.7,66.9,30.00,NNE,18,2.1,4.6,59,0.00,OVC,,0.00,677.0,WeatherDisplay:10.37,2013-07-31 18:17:00,
2013-07-31 13:18:00,82.7,67.9,30.00,NW,321,2.8,4.6,61,0.00,OVC,,0.00,677.0,WeatherDisplay:10.37,2013-07-31 18:18:00,
2013-07-31 13:20:00,83.5,68.6,30.00,NNE,22,1.1,4.6,61,0.00,OVC,,0.00,981.0,WeatherDisplay:10.37,2013-07-31 18:20:00,
2013-07-31 13:22:00,84.0,66.6,30.00,NNE,12,3.6,6.9,56,0.00,OVC,,0.00,946.0,WeatherDisplay:10.37,2013-07-31 18:22:00,
2013-07-31 13:23:00,83.8,66.9,30.00,North,355,2.9,8.0,57,0.00,OVC,,0.00,946.0,WeatherDisplay:10.37,2013-07-31 18:23:00,
2013-07-31 13:25:00,82.9,67.1,30.00,NW,313,2.5,5.8,59,0.00,OVC,,0.00,946.0,WeatherDisplay:10.37,2013-07-31 18:25:00,
2013-07-31 13:28:00,82.8,67.5,30.01,NNE,22,2.2,3.5,60,0.00,OVC,,0.00,954.0,WeatherDisplay:10.37,2013-07-31 18:28:00,
2013-07-31 13:29:00,83.0,68.2,30.00,NNE,17,2.9,5.8,61,0.00,OVC,,0.00,958.0,WeatherDisplay:10.37,2013-07-31 18:29:00,
2013-07-31 13:30:00,82.9,67.6,30.00,North,5,3.1,4.6,60,0.00,OVC,,0.00,939.0,WeatherDisplay:10.37,2013-07-31 18:30:00,
2013-07-31 13:33:00,82.7,66.9,30.00,NW,315,2.3,4.6,59,0.00,OVC,,0.00,898.0,WeatherDisplay:10.37,2013-07-31 18:33:00,
2013-07-31 13:34:00,82.8,67.5,30.00,WNW,293,2.8,5.8,60,0.00,OVC,,0.00,904.0,WeatherDisplay:10.37,2013-07-31 18:34:00,
2013-07-31 13:35:00,82.7,66.4,30.00,NNE,30,4.6,10.4,58,0.00,OVC,,0.00,281.0,WeatherDisplay:10.37,2013-07-31 18:35:00,
2013-07-31 13:36:00,82.7,66.4,30.00,NNE,30,4.6,10.4,58,0.00,OVC,,0.00,281.0,WeatherDisplay:10.37,2013-07-31 18:36:00,
2013-07-31 13:38:00,81.8,66.6,30.01,NE,48,3.3,5.8,60,0.00,OVC,,0.00,925.0,WeatherDisplay:10.37,2013-07-31 18:38:00,
2013-07-31 13:39:00,81.8,67.0,30.01,North,10,2.5,5.8,61,0.00,OVC,,0.00,925.0,WeatherDisplay:10.37,2013-07-31 18:39:00,
2013-07-31 13:41:00,81.9,66.2,30.01,NW,323,3.2,6.9,59,0.00,OVC,,0.00,904.0,WeatherDisplay:10.37,2013-07-31 18:41:00,
2013-07-31 13:44:00,82.6,66.3,30.01,WNW,303,2.3,3.5,58,0.00,OVC,,0.00,921.0,WeatherDisplay:10.37,2013-07-31 18:44:00,
2013-07-31 13:45:00,82.6,65.8,30.01,West,279,0.4,3.5,57,0.00,OVC,,0.00,933.0,WeatherDisplay:10.37,2013-07-31 18:45:00,
2013-07-31 13:46:00,83.0,66.7,30.01,NW,314,2.9,4.6,58,0.00,OVC,,0.00,947.0,WeatherDisplay:10.37,2013-07-31 18:46:00,
2013-07-31 13:49:00,83.2,66.4,30.00,NNE,32,2.8,3.5,57,0.00,OVC,,0.00,895.0,WeatherDisplay:10.37,2013-07-31 18:49:00,
2013-07-31 13:50:00,83.2,66.9,30.00,NW,320,1.9,4.0,58,0.00,OVC,,0.00,909.0,WeatherDisplay:10.37,2013-07-31 18:50:00,
2013-07-31 13:51:00,83.3,66.5,30.00,NW,306,1.7,3.5,57,0.00,OVC,,0.00,919.0,WeatherDisplay:10.37,2013-07-31 18:51:00,
2013-07-31 13:52:00,83.6,68.2,30.00,WNW,294,1.7,4.0,60,0.00,OVC,,0.00,916.0,WeatherDisplay:10.37,2013-07-31 18:52:00,
2013-07-31 13:54:00,83.9,66.5,30.01,NNE,23,2.9,4.6,56,0.00,OVC,,0.00,909.0,WeatherDisplay:10.37,2013-07-31 18:54:00,
2013-07-31 14:05:00,83.3,66.5,30.00,NE,38,3.2,5.8,57,0.00,OVC,,0.00,861.0,WeatherDisplay:10.37,2013-07-31 19:05:00,
2013-07-31 14:10:00,83.9,66.0,30.00,NW,315,3.1,4.6,55,0.00,OVC,,0.00,860.0,WeatherDisplay:10.37,2013-07-31 19:10:00,
2013-07-31 14:11:00,84.0,66.1,30.00,NW,315,2.9,4.6,55,0.00,OVC,,0.00,868.0,WeatherDisplay:10.37,2013-07-31 19:11:00,
2013-07-31 14:12:00,84.1,67.2,30.00,NNE,32,2.0,4.0,57,0.00,OVC,,0.00,867.0,WeatherDisplay:10.37,2013-07-31 19:12:00,
2013-07-31 14:15:00,83.5,66.7,30.00,WNW,286,3.4,5.8,57,0.00,OVC,,0.00,870.0,WeatherDisplay:10.37,2013-07-31 19:15:00,
2013-07-31 14:16:00,83.6,66.8,30.00,North,11,4.0,5.8,57,0.00,OVC,,0.00,867.0,WeatherDisplay:10.37,2013-07-31 19:16:00,
2013-07-31 14:17:00,83.7,66.8,30.00,NE,45,5.5,10.4,57,0.00,OVC,,0.00,868.0,WeatherDisplay:10.37,2013-07-31 19:17:00,
2013-07-31 14:20:00,83.1,67.3,30.00,ENE,57,1.8,5.0,59,0.00,OVC,,0.00,872.0,WeatherDisplay:10.37,2013-07-31 19:20:00,
2013-07-31 14:21:00,83.1,67.3,30.00,NE,53,2.5,4.6,59,0.00,OVC,,0.00,872.0,WeatherDisplay:10.37,2013-07-31 19:21:00,
2013-07-31 14:22:00,82.9,65.6,30.00,ENE,57,0.2,5.8,56,0.00,OVC,,0.00,867.0,WeatherDisplay:10.37,2013-07-31 19:22:00,
2013-07-31 14:23:00,82.9,65.6,30.00,NE,46,1.2,3.5,56,0.00,OVC,,0.00,863.0,WeatherDisplay:10.37,2013-07-31 19:23:00,
2013-07-31 14:26:00,83.1,66.8,30.00,NNE,29,2.8,5.0,58,0.00,OVC,,0.00,858.0,WeatherDisplay:10.37,2013-07-31 19:26:00,
2013-07-31 14:28:00,83.5,67.2,30.00,East,82,2.7,5.0,58,0.00,OVC,,0.00,853.0,WeatherDisplay:10.37,2013-07-31 19:28:00,
2013-07-31 14:32:00,84.3,67.4,30.00,NW,307,4.2,8.1,57,0.00,OVC,,0.00,853.0,WeatherDisplay:10.37,2013-07-31 19:32:00,
2013-07-31 14:33:00,84.5,68.1,30.00,NE,40,3.0,8.1,58,0.00,OVC,,0.00,853.0,WeatherDisplay:10.37,2013-07-31 19:33:00,
2013-07-31 14:37:00,84.3,67.9,30.00,NNW,342,2.8,4.6,58,0.00,OVC,,0.00,851.0,WeatherDisplay:10.37,2013-07-31 19:37:00,
2013-07-31 14:38:00,84.2,66.8,30.00,NW,316,4.4,10.4,56,0.00,OVC,,0.00,847.0,WeatherDisplay:10.37,2013-07-31 19:38:00,
2013-07-31 14:42:00,84.1,67.2,30.00,ENE,67,2.8,6.9,57,0.00,OVC,,0.00,840.0,WeatherDisplay:10.37,2013-07-31 19:42:00,
2013-07-31 14:43:00,84.3,66.9,30.00,North,355,2.6,4.0,56,0.00,OVC,,0.00,838.0,WeatherDisplay:10.37,2013-07-31 19:43:00,
2013-07-31 14:47:00,84.3,65.8,30.00,NE,51,2.5,4.6,54,0.00,OVC,,0.00,838.0,WeatherDisplay:10.37,2013-07-31 19:47:00,
2013-07-31 14:48:00,84.3,65.8,30.00,NE,49,1.6,3.5,54,0.00,OVC,,0.00,837.0,WeatherDisplay:10.37,2013-07-31 19:48:00,
2013-07-31 14:52:00,84.3,67.4,30.00,NNW,339,1.8,2.3,57,0.00,OVC,,0.00,830.0,WeatherDisplay:10.37,2013-07-31 19:52:00,
2013-07-31 14:53:00,84.3,67.4,30.00,NNW,346,1.6,3.5,57,0.00,OVC,,0.00,831.0,WeatherDisplay:10.37,2013-07-31 19:53:00,
2013-07-31 14:54:00,84.4,66.5,30.00,NW,321,1.8,3.5,55,0.00,OVC,,0.00,830.0,WeatherDisplay:10.37,2013-07-31 19:54:00,
2013-07-31 14:58:00,84.3,67.4,29.99,NE,51,3.9,8.1,57,0.00,OVC,,0.00,824.0,WeatherDisplay:10.37,2013-07-31 19:58:00,
2013-07-31 14:59:00,84.1,66.7,29.99,NW,306,1.3,5.8,56,0.00,OVC,,0.00,823.0,WeatherDisplay:10.37,2013-07-31 19:59:00,
2013-07-31 15:03:00,84.1,66.7,29.99,North,5,1.6,5.8,56,0.00,OVC,,0.00,821.0,WeatherDisplay:10.37,2013-07-31 20:03:00,
2013-07-31 15:04:00,84.1,66.7,29.99,NNE,24,3.7,4.6,56,0.00,OVC,,0.00,816.0,WeatherDisplay:10.37,2013-07-31 20:04:00,
2013-07-31 15:08:00,84.2,66.8,29.99,NNW,331,3.0,5.8,56,0.00,OVC,,0.00,814.0,WeatherDisplay:10.37,2013-07-31 20:08:00,
2013-07-31 15:09:00,84.3,66.9,29.99,NNW,328,2.8,4.6,56,0.00,OVC,,0.00,814.0,WeatherDisplay:10.37,2013-07-31 20:09:00,
2013-07-31 15:13:00,84.4,67.0,29.99,NNE,20,1.4,3.5,56,0.00,OVC,,0.00,807.0,WeatherDisplay:10.37,2013-07-31 20:13:00,
2013-07-31 15:14:00,84.4,65.4,29.99,NNE,26,1.5,3.5,53,0.00,OVC,,0.00,805.0,WeatherDisplay:10.37,2013-07-31 20:14:00,
2013-07-31 15:19:00,84.4,65.9,29.99,NNW,340,2.7,3.5,54,0.00,OVC,,0.00,796.0,WeatherDisplay:10.37,2013-07-31 20:19:00,
2013-07-31 15:24:00,84.1,64.6,29.99,NNW,336,3.3,4.6,52,0.00,OVC,,0.00,789.0,WeatherDisplay:10.37,2013-07-31 20:24:00,
2013-07-31 15:25:00,84.1,64.6,29.99,NNE,21,3.1,6.9,52,0.00,OVC,,0.00,789.0,WeatherDisplay:10.37,2013-07-31 20:25:00,
2013-07-31 15:29:00,84.5,64.9,29.99,NNW,334,3.0,3.5,52,0.00,OVC,,0.00,782.0,WeatherDisplay:10.37,2013-07-31 20:29:00,
2013-07-31 15:30:00,84.5,64.9,29.99,WNW,303,2.8,4.6,52,0.00,OVC,,0.00,782.0,WeatherDisplay:10.37,2013-07-31 20:30:00,
2013-07-31 15:34:00,84.6,64.4,29.99,North,357,0.0,3.0,51,0.00,OVC,,0.00,775.0,WeatherDisplay:10.37,2013-07-31 20:34:00,
2013-07-31 15:35:00,84.4,64.3,29.99,NE,37,0.5,3.5,51,0.00,OVC,,0.00,775.0,WeatherDisplay:10.37,2013-07-31 20:35:00,
2013-07-31 15:40:00,84.1,66.2,29.99,NW,315,1.6,3.5,55,0.00,OVC,,0.00,766.0,WeatherDisplay:10.37,2013-07-31 20:40:00,
2013-07-31 15:45:00,85.0,66.5,29.98,WNW,292,1.2,2.3,54,0.00,OVC,,0.00,754.0,WeatherDisplay:10.37,2013-07-31 20:45:00,
2013-07-31 15:46:00,85.4,65.8,29.98,South,171,1.1,2.3,52,0.00,OVC,,0.00,751.0,WeatherDisplay:10.37,2013-07-31 20:46:00,
2013-07-31 15:50:00,85.6,66.0,29.98,NNW,346,1.1,2.3,52,0.00,OVC,,0.00,742.0,WeatherDisplay:10.37,2013-07-31 20:50:00,
2013-07-31 15:52:00,85.5,67.5,29.98,NE,46,2.7,4.6,55,0.00,OVC,,0.00,742.0,WeatherDisplay:10.37,2013-07-31 20:52:00,
2013-07-31 15:55:00,85.2,65.6,29.98,NNW,334,1.9,3.5,52,0.00,OVC,,0.00,738.0,WeatherDisplay:10.37,2013-07-31 20:55:00,
2013-07-31 15:57:00,85.2,65.0,29.98,West,277,2.3,3.5,51,0.00,OVC,,0.00,731.0,WeatherDisplay:10.37,2013-07-31 20:57:00,
2013-07-31 16:00:00,85.6,64.8,29.98,SSW,207,1.7,3.5,50,0.00,OVC,,0.00,728.0,WeatherDisplay:10.37,2013-07-31 21:00:00,
2013-07-31 16:01:00,85.6,64.2,29.98,SSW,207,0.9,3.5,49,0.00,OVC,,0.00,728.0,WeatherDisplay:10.37,2013-07-31 21:01:00,
2013-07-31 16:02:00,85.6,64.8,29.98,SSW,207,0.1,2.3,50,0.00,OVC,,0.00,724.0,WeatherDisplay:10.37,2013-07-31 21:02:00,
2013-07-31 16:05:00,85.6,64.8,29.98,NW,323,2.1,3.5,50,0.00,OVC,,0.00,715.0,WeatherDisplay:10.37,2013-07-31 21:05:00,
2013-07-31 16:06:00,85.7,64.9,29.98,NW,323,0.5,3.5,50,0.00,OVC,,0.00,715.0,WeatherDisplay:10.37,2013-07-31 21:06:00,
2013-07-31 16:07:00,85.9,64.5,29.98,NW,323,0.6,2.3,49,0.00,OVC,,0.00,708.0,WeatherDisplay:10.37,2013-07-31 21:07:00,
2013-07-31 16:10:00,86.0,66.9,29.98,ESE,121,1.3,3.0,53,0.00,OVC,,0.00,701.0,WeatherDisplay:10.37,2013-07-31 21:10:00,
2013-07-31 16:12:00,86.0,68.0,29.98,NNW,345,3.4,6.9,55,0.00,OVC,,0.00,701.0,WeatherDisplay:10.37,2013-07-31 21:12:00,
2013-07-31 16:13:00,85.8,65.6,29.98,WNW,302,4.5,9.2,51,0.00,OVC,,0.00,698.0,WeatherDisplay:10.37,2013-07-31 21:13:00,
2013-07-31 16:15:00,85.1,64.9,29.98,NW,325,2.7,7.0,51,0.00,OVC,,0.00,691.0,WeatherDisplay:10.37,2013-07-31 21:15:00,
2013-07-31 16:18:00,84.9,64.8,29.98,NW,323,2.7,4.6,51,0.00,OVC,,0.00,687.0,WeatherDisplay:10.37,2013-07-31 21:18:00,
2013-07-31 16:19:00,84.9,64.8,29.98,NW,306,4.1,5.8,51,0.00,OVC,,0.00,689.0,WeatherDisplay:10.37,2013-07-31 21:19:00,
2013-07-31 16:21:00,84.8,64.1,29.98,NW,325,3.0,5.8,50,0.00,OVC,,0.00,677.0,WeatherDisplay:10.37,2013-07-31 21:21:00,
2013-07-31 16:23:00,85.0,64.8,29.98,ENE,72,4.9,6.0,51,0.00,OVC,,0.00,671.0,WeatherDisplay:10.37,2013-07-31 21:23:00,
2013-07-31 16:24:00,84.9,64.8,29.98,East,90,4.9,6.9,51,0.00,OVC,,0.00,671.0,WeatherDisplay:10.37,2013-07-31 21:24:00,
2013-07-31 16:26:00,85.1,66.0,29.98,NE,38,1.6,5.0,53,0.00,OVC,,0.00,664.0,WeatherDisplay:10.37,2013-07-31 21:26:00,
2013-07-31 16:29:00,85.4,66.3,29.98,NE,49,1.9,3.5,53,0.00,OVC,,0.00,652.0,WeatherDisplay:10.37,2013-07-31 21:29:00,
2013-07-31 16:31:00,85.4,65.2,29.98,North,5,1.8,3.5,51,0.00,OVC,,0.00,649.0,WeatherDisplay:10.37,2013-07-31 21:31:00,
2013-07-31 16:34:00,85.8,65.6,29.98,NNE,24,1.2,3.0,51,0.00,OVC,,0.00,645.0,WeatherDisplay:10.37,2013-07-31 21:34:00,
2013-07-31 16:37:00,85.5,64.7,29.97,NNE,17,3.8,5.8,50,0.00,OVC,,0.00,638.0,WeatherDisplay:10.37,2013-07-31 21:37:00,
2013-07-31 16:39:00,85.2,64.5,29.97,NNE,26,3.0,6.9,50,0.00,OVC,,0.00,629.0,WeatherDisplay:10.37,2013-07-31 21:39:00,
2013-07-31 16:42:00,85.4,65.8,29.97,North,9,3.4,6.9,52,0.00,OVC,,0.00,622.0,WeatherDisplay:10.37,2013-07-31 21:42:00,
2013-07-31 16:44:00,85.5,66.4,29.97,NW,324,2.1,4.6,53,0.00,OVC,,0.00,619.0,WeatherDisplay:10.37,2013-07-31 21:44:00,
2013-07-31 16:45:00,85.5,66.4,29.97,NNE,15,3.0,5.8,53,0.00,OVC,,0.00,619.0,WeatherDisplay:10.37,2013-07-31 21:45:00,
2013-07-31 16:47:00,85.2,65.0,29.97,NW,317,4.0,4.6,51,0.00,OVC,,0.00,608.0,WeatherDisplay:10.37,2013-07-31 21:47:00,
2013-07-31 16:49:00,85.0,65.4,29.97,NE,38,3.3,3.5,52,0.00,OVC,,0.00,605.0,WeatherDisplay:10.37,2013-07-31 21:49:00,
2013-07-31 16:50:00,84.9,65.3,29.97,NE,53,3.0,3.5,52,0.00,OVC,,0.00,603.0,WeatherDisplay:10.37,2013-07-31 21:50:00,
2013-07-31 16:52:00,84.7,66.2,29.97,ENE,61,1.5,4.6,54,0.00,OVC,,0.00,592.0,WeatherDisplay:10.37,2013-07-31 21:52:00,
2013-07-31 16:55:00,84.9,66.9,29.97,NNE,14,2.8,4.6,55,0.00,OVC,,0.00,582.0,WeatherDisplay:10.37,2013-07-31 21:55:00,
2013-07-31 16:57:00,84.8,65.8,29.97,SE,132,2.5,5.8,53,0.00,OVC,,0.00,577.0,WeatherDisplay:10.37,2013-07-31 21:57:00,
2013-07-31 17:00:00,85.0,66.0,29.96,NW,304,2.2,7.0,53,0.00,OVC,,0.00,573.0,WeatherDisplay:10.37,2013-07-31 22:00:00,
2013-07-31 17:01:00,85.1,66.0,29.96,NNW,336,5.3,11.5,53,0.00,OVC,,0.00,571.0,WeatherDisplay:10.37,2013-07-31 22:01:00,
2013-07-31 17:02:00,85.0,64.8,29.96,NNE,33,2.8,4.6,51,0.00,OVC,,0.00,566.0,WeatherDisplay:10.37,2013-07-31 22:02:00,
2013-07-31 17:05:00,85.0,65.4,29.96,NNE,16,2.4,5.8,52,0.00,OVC,,0.00,561.0,WeatherDisplay:10.37,2013-07-31 22:05:00,
2013-07-31 17:07:00,84.9,65.3,29.96,NNW,329,2.6,5.8,52,0.00,OVC,,0.00,557.0,WeatherDisplay:10.37,2013-07-31 22:07:00,
2013-07-31 17:08:00,85.0,65.4,29.96,NNW,328,1.8,3.5,52,0.00,OVC,,0.00,555.0,WeatherDisplay:10.37,2013-07-31 22:08:00,
2013-07-31 17:10:00,85.0,65.4,29.96,ENE,69,4.3,8.0,52,0.00,OVC,,0.00,548.0,WeatherDisplay:10.37,2013-07-31 22:10:00,
2013-07-31 17:11:00,84.9,65.3,29.96,ENE,59,4.5,9.2,52,0.00,OVC,,0.00,548.0,WeatherDisplay:10.37,2013-07-31 22:11:00,
2013-07-31 17:12:00,84.7,66.2,29.96,NE,50,2.2,3.5,54,0.00,OVC,,0.00,541.0,WeatherDisplay:10.37,2013-07-31 22:12:00,
2013-07-31 17:13:00,84.6,66.1,29.96,NNE,26,2.3,3.5,54,0.00,OVC,,0.00,538.0,WeatherDisplay:10.37,2013-07-31 22:13:00,
2013-07-31 17:15:00,84.8,67.9,29.96,NNE,27,1.4,3.5,57,0.00,OVC,,0.00,533.0,WeatherDisplay:10.37,2013-07-31 22:15:00,
2013-07-31 17:16:00,84.8,67.9,29.96,NNW,342,2.4,4.6,57,0.00,OVC,,0.00,533.0,WeatherDisplay:10.37,2013-07-31 22:16:00,
2013-07-31 17:17:00,84.7,65.7,29.96,East,79,0.6,3.5,53,0.00,OVC,,0.00,526.0,WeatherDisplay:10.37,2013-07-31 22:17:00,
2013-07-31 17:18:00,84.7,65.7,29.96,ENE,76,0.9,3.5,53,0.00,OVC,,0.00,524.0,WeatherDisplay:10.37,2013-07-31 22:18:00,
2013-07-31 17:20:00,84.8,66.8,29.96,WNW,289,0.9,3.5,55,0.00,OVC,,0.00,526.0,WeatherDisplay:10.37,2013-07-31 22:20:00,
2013-07-31 17:21:00,84.9,65.9,29.96,WNW,294,2.7,5.0,53,0.00,OVC,,0.00,526.0,WeatherDisplay:10.37,2013-07-31 22:21:00,
2013-07-31 17:23:00,85.0,66.5,29.96,North,360,2.7,4.6,54,0.00,CLR,,0.00,519.0,WeatherDisplay:10.37,2013-07-31 22:23:00,
2013-07-31 17:25:00,84.9,66.9,29.96,WNW,303,3.0,4.6,55,0.00,CLR,,0.00,524.0,WeatherDisplay:10.37,2013-07-31 22:25:00,
2013-07-31 17:27:00,84.9,66.9,29.96,North,360,2.5,4.0,55,0.00,CLR,,0.00,534.0,WeatherDisplay:10.37,2013-07-31 22:27:00,
2013-07-31 17:28:00,84.9,66.4,29.96,North,360,3.6,4.6,54,0.00,CLR,,0.00,547.0,WeatherDisplay:10.37,2013-07-31 22:28:00,
2013-07-31 17:30:00,85.0,67.0,29.96,North,9,3.1,3.5,55,0.00,CLR,,0.00,603.0,WeatherDisplay:10.37,2013-07-31 22:30:00,
2013-07-31 17:32:00,85.1,66.6,29.96,WNW,302,2.5,4.6,54,0.00,CLR,,0.00,250.0,WeatherDisplay:10.37,2013-07-31 22:32:00,
2013-07-31 17:33:00,85.2,67.2,29.96,WNW,303,1.1,4.6,55,0.00,CLR,,0.00,250.0,WeatherDisplay:10.37,2013-07-31 22:33:00,
2013-07-31 17:34:00,85.3,67.3,29.95,NW,321,0.3,1.2,55,0.00,CLR,,0.00,397.0,WeatherDisplay:10.37,2013-07-31 22:34:00,
2013-07-31 17:36:00,85.3,66.8,29.95,SE,124,0.9,2.3,54,0.00,CLR,,0.00,397.0,WeatherDisplay:10.37,2013-07-31 22:36:00,
2013-07-31 17:37:00,85.0,66.5,29.96,ENE,61,0.7,3.5,54,0.00,CLR,,0.00,295.0,WeatherDisplay:10.37,2013-07-31 22:37:00,
2013-07-31 17:38:00,84.9,66.9,29.96,ENE,65,0.3,3.5,55,0.00,CLR,,0.00,371.0,WeatherDisplay:10.37,2013-07-31 22:38:00,
2013-07-31 17:39:00,84.8,66.8,29.95,NNW,344,0.9,3.0,55,0.00,CLR,,0.00,253.0,WeatherDisplay:10.37,2013-07-31 22:39:00,
2013-07-31 17:41:00,84.6,66.7,29.96,NNW,327,4.1,5.0,55,0.00,CLR,,0.00,367.0,WeatherDisplay:10.37,2013-07-31 22:41:00,
2013-07-31 17:42:00,84.2,65.8,29.95,NE,44,1.6,4.6,54,0.00,CLR,,0.00,367.0,WeatherDisplay:10.37,2013-07-31 22:42:00,
2013-07-31 17:43:00,84.1,66.7,29.95,NE,44,0.9,3.5,56,0.00,CLR,,0.00,367.0,WeatherDisplay:10.37,2013-07-31 22:43:00,
2013-07-31 17:45:00,83.8,66.4,29.95,NE,44,0.0,1.0,56,0.00,CLR,,0.00,367.0,WeatherDisplay:10.37,2013-07-31 22:45:00,
2013-07-31 17:46:00,83.9,66.0,29.95,NNW,346,2.9,4.6,55,0.00,CLR,,0.00,448.0,WeatherDisplay:10.37,2013-07-31 22:46:00,
2013-07-31 17:48:00,83.9,66.0,29.95,NNW,346,1.6,3.5,55,0.00,CLR,,0.00,443.0,WeatherDisplay:10.37,2013-07-31 22:48:00,
2013-07-31 17:49:00,84.0,66.6,29.95,NNE,33,2.1,3.5,56,0.00,CLR,,0.00,371.0,WeatherDisplay:10.37,2013-07-31 22:49:00,
2013-07-31 17:50:00,84.0,67.1,29.95,ENE,65,2.8,4.6,57,0.00,CLR,,0.00,422.0,WeatherDisplay:10.37,2013-07-31 22:50:00,
2013-07-31 17:53:00,83.8,65.9,29.95,North,5,2.2,3.5,55,0.00,CLR,,0.00,432.0,WeatherDisplay:10.37,2013-07-31 22:53:00,
2013-07-31 17:54:00,83.8,66.4,29.95,North,10,1.7,6.9,56,0.00,CLR,,0.00,436.0,WeatherDisplay:10.37,2013-07-31 22:54:00,
2013-07-31 17:55:00,83.8,66.9,29.95,NE,52,1.7,3.5,57,0.00,CLR,,0.00,425.0,WeatherDisplay:10.37,2013-07-31 22:55:00,
2013-07-31 17:58:00,83.8,66.9,29.95,NNE,14,1.6,4.0,57,0.00,CLR,,0.00,406.0,WeatherDisplay:10.37,2013-07-31 22:58:00,
2013-07-31 17:59:00,83.8,66.9,29.95,NE,46,2.6,4.6,57,0.00,CLR,,0.00,399.0,WeatherDisplay:10.37,2013-07-31 22:59:00,
2013-07-31 18:01:00,83.7,66.8,29.95,NE,35,1.1,2.3,57,0.00,CLR,,0.00,387.0,WeatherDisplay:10.37,2013-07-31 23:01:00,
2013-07-31 18:03:00,83.6,66.8,29.95,NE,51,2.4,4.0,57,0.00,CLR,,0.00,369.0,WeatherDisplay:10.37,2013-07-31 23:03:00,
2013-07-31 18:04:00,83.5,66.7,29.95,ENE,63,3.1,4.6,57,0.00,CLR,,0.00,369.0,WeatherDisplay:10.37,2013-07-31 23:04:00,
2013-07-31 18:07:00,83.4,66.6,29.95,North,360,1.2,3.5,57,0.00,CLR,,0.00,362.0,WeatherDisplay:10.37,2013-07-31 23:07:00,
2013-07-31 18:08:00,83.4,67.6,29.95,NNE,18,1.3,3.5,59,0.00,CLR,,0.00,359.0,WeatherDisplay:10.37,2013-07-31 23:08:00,
2013-07-31 18:09:00,83.5,66.2,29.95,NNW,327,1.2,3.5,56,0.00,CLR,,0.00,359.0,WeatherDisplay:10.37,2013-07-31 23:09:00,
2013-07-31 18:10:00,83.6,66.8,29.95,NE,46,2.1,3.5,57,0.00,CLR,,0.00,357.0,WeatherDisplay:10.37,2013-07-31 23:10:00,
2013-07-31 18:12:00,83.5,66.7,29.95,ENE,65,1.3,3.5,57,0.00,CLR,,0.00,352.0,WeatherDisplay:10.37,2013-07-31 23:12:00,
2013-07-31 18:13:00,83.4,66.6,29.95,ENE,73,3.1,4.0,57,0.00,CLR,,0.00,352.0,WeatherDisplay:10.37,2013-07-31 23:13:00,
2013-07-31 18:14:00,83.4,66.1,29.95,East,80,3.6,4.6,56,0.00,CLR,,0.00,352.0,WeatherDisplay:10.37,2013-07-31 23:14:00,
2013-07-31 18:15:00,83.3,66.5,29.95,NW,323,2.8,5.0,57,0.00,CLR,,0.00,345.0,WeatherDisplay:10.37,2013-07-31 23:15:00,
2013-07-31 18:17:00,83.1,66.8,29.95,NNE,25,2.0,3.5,58,0.00,CLR,,0.00,341.0,WeatherDisplay:10.37,2013-07-31 23:17:00,
2013-07-31 18:19:00,83.1,66.3,29.95,NE,46,1.9,3.5,57,0.00,CLR,,0.00,336.0,WeatherDisplay:10.37,2013-07-31 23:19:00,
2013-07-31 18:20:00,83.1,66.3,29.95,NE,45,0.7,3.5,57,0.00,CLR,,0.00,334.0,WeatherDisplay:10.37,2013-07-31 23:20:00,
2013-07-31 18:22:00,83.0,66.2,29.95,North,10,3.1,4.6,57,0.00,CLR,,0.00,336.0,WeatherDisplay:10.37,2013-07-31 23:22:00,
2013-07-31 18:24:00,83.0,66.2,29.95,North,350,3.0,4.6,57,0.00,CLR,,0.00,330.0,WeatherDisplay:10.37,2013-07-31 23:24:00,
2013-07-31 18:25:00,83.0,65.7,29.95,NNE,22,3.3,4.6,56,0.00,CLR,,0.00,327.0,WeatherDisplay:10.37,2013-07-31 23:25:00,
2013-07-31 18:27:00,82.8,66.0,29.95,NNE,23,2.3,5.8,57,0.00,CLR,,0.00,322.0,WeatherDisplay:10.37,2013-07-31 23:27:00,
2013-07-31 18:29:00,82.7,65.4,29.95,NE,51,1.2,3.5,56,0.00,CLR,,0.00,316.0,WeatherDisplay:10.37,2013-07-31 23:29:00,
2013-07-31 18:30:00,82.8,65.5,29.95,NW,323,1.7,3.5,56,0.00,CLR,,0.00,315.0,WeatherDisplay:10.37,2013-07-31 23:30:00,
2013-07-31 18:31:00,82.8,66.5,29.95,NNW,327,0.8,2.3,58,0.00,CLR,,0.00,309.0,WeatherDisplay:10.37,2013-07-31 23:31:00,
2013-07-31 18:32:00,82.9,65.6,29.95,NE,34,1.4,3.0,56,0.00,CLR,,0.00,304.0,WeatherDisplay:10.37,2013-07-31 23:32:00,
2013-07-31 18:34:00,82.9,65.6,29.94,NNE,14,0.9,3.5,56,0.00,CLR,,0.00,297.0,WeatherDisplay:10.37,2013-07-31 23:34:00,
2013-07-31 18:35:00,82.9,66.1,29.94,NNE,25,0.5,2.3,57,0.00,CLR,,0.00,294.0,WeatherDisplay:10.37,2013-07-31 23:35:00,
2013-07-31 18:36:00,83.0,66.2,29.94,NNE,24,0.9,2.3,57,0.00,CLR,,0.00,292.0,WeatherDisplay:10.37,2013-07-31 23:36:00,
2013-07-31 18:38:00,83.0,65.7,29.94,NE,55,2.4,5.8,56,0.00,CLR,,0.00,287.0,WeatherDisplay:10.37,2013-07-31 23:38:00,
2013-07-31 18:39:00,82.9,66.1,29.94,NE,52,1.8,3.5,57,0.00,CLR,,0.00,281.0,WeatherDisplay:10.37,2013-07-31 23:39:00,
2013-07-31 18:40:00,82.8,65.5,29.94,NE,51,2.2,4.6,56,0.00,CLR,,0.00,279.0,WeatherDisplay:10.37,2013-07-31 23:40:00,
2013-07-31 18:41:00,82.7,65.9,29.94,NNW,348,0.6,3.5,57,0.00,CLR,,0.00,278.0,WeatherDisplay:10.37,2013-07-31 23:41:00,
2013-07-31 18:43:00,82.8,65.5,29.94,NE,50,1.5,3.5,56,0.00,CLR,,0.00,272.0,WeatherDisplay:10.37,2013-07-31 23:43:00,
2013-07-31 18:44:00,82.8,66.0,29.94,ENE,61,1.6,3.5,57,0.00,CLR,,0.00,267.0,WeatherDisplay:10.37,2013-07-31 23:44:00,
2013-07-31 18:45:00,82.7,65.4,29.94,ENE,61,1.7,3.5,56,0.00,CLR,,0.00,265.0,WeatherDisplay:10.37,2013-07-31 23:45:00,
2013-07-31 18:46:00,82.7,66.4,29.94,NE,46,0.6,2.3,58,0.00,CLR,,0.00,264.0,WeatherDisplay:10.37,2013-07-31 23:46:00,
2013-07-31 18:48:00,82.5,65.2,29.94,ENE,64,2.8,4.6,56,0.00,CLR,,0.00,257.0,WeatherDisplay:10.37,2013-07-31 23:48:00,
2013-07-31 18:49:00,82.4,65.6,29.94,NNE,14,2.0,4.6,57,0.00,CLR,,0.00,251.0,WeatherDisplay:10.37,2013-07-31 23:49:00,
2013-07-31 18:50:00,82.3,65.5,29.94,North,5,1.8,3.5,57,0.00,CLR,,0.00,248.0,WeatherDisplay:10.37,2013-07-31 23:50:00,
2013-07-31 18:52:00,82.1,65.4,29.94,NNE,18,2.1,3.5,57,0.00,CLR,,0.00,243.0,WeatherDisplay:10.37,2013-07-31 23:52:00,
2013-07-31 18:54:00,82.1,65.4,29.94,NNW,334,1.9,3.5,57,0.00,CLR,,0.00,237.0,WeatherDisplay:10.37,2013-07-31 23:54:00,
2013-07-31 18:55:00,82.2,65.4,29.95,NNW,328,2.5,3.5,57,0.00,CLR,,0.00,232.0,WeatherDisplay:10.37,2013-07-31 23:55:00,
2013-07-31 18:56:00,82.2,64.9,29.95,NNE,22,2.5,3.5,56,0.00,CLR,,0.00,232.0,WeatherDisplay:10.37,2013-07-31 23:56:00,
2013-07-31 18:58:00,82.3,65.5,29.95,ENE,63,1.5,3.5,57,0.00,CLR,,0.00,223.0,WeatherDisplay:10.37,2013-07-31 23:58:00,
2013-07-31 18:59:00,82.1,65.4,29.95,NE,40,1.4,3.5,57,0.00,CLR,,0.00,220.0,WeatherDisplay:10.37,2013-07-31 23:59:00,
2013-07-31 19:00:00,82.0,65.8,29.95,NNW,336,0.5,2.3,58,0.00,CLR,,0.00,207.0,WeatherDisplay:10.37,2013-08-01 00:00:00,
2013-07-31 19:01:00,82.0,65.3,29.95,ENE,78,1.0,2.3,57,0.00,FEW,,0.00,207.0,WeatherDisplay:10.37,2013-08-01 00:01:00,
2013-07-31 19:03:00,81.9,65.7,29.95,ENE,67,0.8,2.3,58,0.00,FEW,,0.00,185.0,WeatherDisplay:10.37,2013-08-01 00:03:00,
2013-07-31 19:04:00,81.8,65.6,29.94,North,5,1.7,3.5,58,0.00,SCT,,0.00,114.0,WeatherDisplay:10.37,2013-08-01 00:04:00,
2013-07-31 19:05:00,81.8,66.1,29.95,NNW,328,1.3,3.5,59,0.00,BKN,,0.00,77.0,WeatherDisplay:10.37,2013-08-01 00:05:00,
2013-07-31 19:06:00,81.8,66.1,29.95,NNW,328,1.1,2.3,59,0.00,BKN,,0.00,77.0,WeatherDisplay:10.37,2013-08-01 00:06:00,
2013-07-31 19:08:00,81.5,65.3,29.94,NNE,13,1.7,3.5,58,0.00,BKN,,0.00,47.0,WeatherDisplay:10.37,2013-08-01 00:08:00,
2013-07-31 19:10:00,81.4,65.7,29.95,NW,313,0.3,3.5,59,0.00,BKN,,0.00,46.0,WeatherDisplay:10.37,2013-08-01 00:10:00,
2013-07-31 19:12:00,81.3,66.6,29.95,NW,315,0.7,2.3,61,0.00,BKN,,0.00,47.0,WeatherDisplay:10.37,2013-08-01 00:12:00,
2013-07-31 19:14:00,81.4,66.2,29.95,NNE,28,0.2,1.2,60,0.00,BKN,,0.00,44.0,WeatherDisplay:10.37,2013-08-01 00:14:00,
2013-07-31 19:15:00,81.4,65.7,29.95,NNE,28,0.7,2.3,59,0.00,BKN,,0.00,42.0,WeatherDisplay:10.37,2013-08-01 00:15:00,
2013-07-31 19:17:00,81.5,65.8,29.95,North,11,0.1,1.2,59,0.00,BKN,,0.00,42.0,WeatherDisplay:10.37,2013-08-01 00:17:00,
2013-07-31 19:19:00,81.5,65.8,29.95,NNW,340,1.3,3.5,59,0.00,BKN,,0.00,42.0,WeatherDisplay:10.37,2013-08-01 00:19:00,
2013-07-31 19:21:00,81.6,65.9,29.95,NE,36,0.1,1.2,59,0.00,BKN,,0.00,42.0,WeatherDisplay:10.37,2013-08-01 00:21:00,
2013-07-31 19:22:00,81.6,65.9,29.95,NNW,344,1.0,2.3,59,0.00,BKN,,0.00,42.0,WeatherDisplay:10.37,2013-08-01 00:22:00,
2013-07-31 19:24:00,81.5,65.8,29.95,NW,324,1.6,2.3,59,0.00,BKN,,0.00,39.0,WeatherDisplay:10.37,2013-08-01 00:24:00,
2013-07-31 19:26:00,81.5,65.8,29.95,NNW,338,2.4,3.5,59,0.00,BKN,,0.00,39.0,WeatherDisplay:10.37,2013-08-01 00:26:00,
2013-07-31 19:27:00,81.5,66.3,29.95,NNE,30,1.1,3.5,60,0.00,BKN,,0.00,37.0,WeatherDisplay:10.37,2013-08-01 00:27:00,
2013-07-31 19:29:00,81.5,66.3,29.95,North,11,1.3,2.3,60,0.00,BKN,,0.00,35.0,WeatherDisplay:10.37,2013-08-01 00:29:00,
2013-07-31 19:32:00,81.4,66.2,29.95,NW,323,1.8,4.6,60,0.00,BKN,,0.00,35.0,WeatherDisplay:10.37,2013-08-01 00:32:00,
2013-07-31 19:34:00,81.3,66.1,29.95,NNW,332,0.1,3.5,60,0.00,BKN,,0.00,35.0,WeatherDisplay:10.37,2013-08-01 00:34:00,
2013-07-31 19:37:00,81.3,66.1,29.95,NNE,13,0.7,2.3,60,0.00,BKN,,0.00,35.0,WeatherDisplay:10.37,2013-08-01 00:37:00,
2013-07-31 19:38:00,81.3,66.1,29.95,NNE,13,0.5,2.3,60,0.00,BKN,,0.00,35.0,WeatherDisplay:10.37,2013-08-01 00:38:00,
2013-07-31 19:39:00,81.3,66.1,29.95,North,5,0.6,2.3,60,0.00,BKN,,0.00,32.0,WeatherDisplay:10.37,2013-08-01 00:39:00,
2013-07-31 19:42:00,81.2,66.5,29.95,North,5,0.6,2.3,61,0.00,BKN,,0.00,30.0,WeatherDisplay:10.37,2013-08-01 00:42:00,
2013-07-31 19:43:00,81.2,66.5,29.95,North,360,0.7,3.5,61,0.00,BKN,,0.00,30.0,WeatherDisplay:10.37,2013-08-01 00:43:00,
2013-07-31 19:45:00,81.0,66.3,29.95,North,360,0.0,1.2,61,0.00,BKN,,0.00,35.0,WeatherDisplay:10.37,2013-08-01 00:45:00,
2013-07-31 19:48:00,80.9,67.1,29.95,NW,318,0.7,2.3,63,0.00,BKN,,0.00,28.0,WeatherDisplay:10.37,2013-08-01 00:48:00,
2013-07-31 19:50:00,80.6,66.8,29.95,NW,318,0.0,1.2,63,0.00,BKN,,0.00,26.0,WeatherDisplay:10.37,2013-08-01 00:50:00,
2013-07-31 19:53:00,80.6,66.4,29.95,NW,318,0.0,1.2,62,0.00,BKN,,0.00,25.0,WeatherDisplay:10.37,2013-08-01 00:53:00,
2013-07-31 19:56:00,80.3,66.6,29.96,NW,318,0.1,1.2,63,0.00,BKN,,0.00,23.0,WeatherDisplay:10.37,2013-08-01 00:56:00,
2013-07-31 19:58:00,80.2,66.9,29.96,NNW,329,0.9,2.3,64,0.00,CLR,,0.00,21.0,WeatherDisplay:10.37,2013-08-01 00:58:00,
2013-07-31 19:59:00,80.1,66.8,29.96,NNW,329,0.4,2.3,64,0.00,CLR,,0.00,21.0,WeatherDisplay:10.37,2013-08-01 00:59:00,
2013-07-31 20:01:00,80.0,66.7,29.96,NNW,329,0.1,1.2,64,0.00,CLR,,0.00,19.0,WeatherDisplay:10.37,2013-08-01 01:01:00,
2013-07-31 20:03:00,79.7,66.9,29.96,NNW,329,0.0,1.2,65,0.00,CLR,,0.00,19.0,WeatherDisplay:10.37,2013-08-01 01:03:00,
2013-07-31 20:04:00,79.6,66.8,29.96,NNW,329,0.0,1.2,65,0.00,CLR,,0.00,18.0,WeatherDisplay:10.37,2013-08-01 01:04:00,
2013-07-31 20:05:00,79.5,66.7,29.96,NNW,329,0.0,1.2,65,0.00,CLR,,0.00,18.0,WeatherDisplay:10.37,2013-08-01 01:05:00,
2013-07-31 20:07:00,79.3,67.0,29.96,NNW,329,0.0,0.0,66,0.00,CLR,,0.00,16.0,WeatherDisplay:10.37,2013-08-01 01:07:00,
2013-07-31 20:09:00,79.1,67.2,29.96,NNW,329,0.0,0.0,67,0.00,CLR,,0.00,14.0,WeatherDisplay:10.37,2013-08-01 01:09:00,
2013-07-31 20:13:00,78.6,66.7,29.96,NNW,331,0.0,0.0,67,0.00,CLR,,0.00,12.0,WeatherDisplay:10.37,2013-08-01 01:13:00,
2013-07-31 20:14:00,78.5,67.1,29.96,NNW,331,0.0,0.0,68,0.00,CLR,,0.00,12.0,WeatherDisplay:10.37,2013-08-01 01:14:00,
2013-07-31 20:15:00,78.3,66.9,29.96,NNW,331,0.0,0.0,68,0.00,CLR,,0.00,11.0,WeatherDisplay:10.37,2013-08-01 01:15:00,
2013-07-31 20:18:00,78.2,66.8,29.96,NNW,331,0.0,1.0,68,0.00,CLR,,0.00,9.0,WeatherDisplay:10.37,2013-08-01 01:18:00,
2013-07-31 20:19:00,78.1,66.7,29.96,NNW,331,0.1,1.2,68,0.00,CLR,,0.00,9.0,WeatherDisplay:10.37,2013-08-01 01:19:00,
2013-07-31 20:20:00,78.1,66.7,29.96,NNW,331,0.0,1.0,68,0.00,CLR,,0.00,9.0,WeatherDisplay:10.37,2013-08-01 01:20:00,
2013-07-31 20:23:00,77.6,67.0,29.97,NNW,331,0.0,0.0,70,0.00,CLR,,0.00,7.0,WeatherDisplay:10.37,2013-08-01 01:23:00,
2013-07-31 20:24:00,77.5,66.9,29.96,NNW,331,0.0,0.0,70,0.00,CLR,,0.00,5.0,WeatherDisplay:10.37,2013-08-01 01:24:00,
2013-07-31 20:25:00,77.5,66.5,29.96,NNW,331,0.0,0.0,69,0.00,CLR,,0.00,5.0,WeatherDisplay:10.37,2013-08-01 01:25:00,
2013-07-31 20:28:00,77.0,66.9,29.96,NNW,331,0.0,0.0,71,0.00,CLR,,0.00,0.0,WeatherDisplay:10.37,2013-08-01 01:28:00,
2013-07-31 20:29:00,76.9,66.8,29.96,NNW,331,0.0,0.0,71,0.00,CLR,,0.00,0.0,WeatherDisplay:10.37,2013-08-01 01:29:00,
2013-07-31 20:30:00,76.9,66.8,29.96,NNW,331,0.0,0.0,71,0.00,CLR,,0.00,0.0,WeatherDisplay:10.37,2013-08-01 01:30:00,
2013-07-31 20:31:00,76.7,66.6,29.96,NNW,331,0.0,0.0,71,0.00,CLR,,0.00,0.0,WeatherDisplay:10.37,2013-08-01 01:31:00,
2013-07-31 20:33:00,76.7,66.6,29.96,NNW,331,0.0,0.0,71,0.00,CLR,,0.00,0.0,WeatherDisplay:10.37,2013-08-01 01:33:00,
2013-07-31 20:34:00,76.6,66.9,29.96,NNW,331,0.0,0.0,72,0.00,CLR,,0.00,0.0,WeatherDisplay:10.37,2013-08-01 01:34:00,
2013-07-31 20:35:00,76.6,66.9,29.96,NNW,331,0.0,0.0,72,0.00,CLR,,0.00,0.0,WeatherDisplay:10.37,2013-08-01 01:35:00,
2013-07-31 20:36:00,76.6,66.9,29.96,NNW,331,0.0,0.0,72,0.00,CLR,,0.00,0.0,WeatherDisplay:10.37,2013-08-01 01:36:00,
2013-07-31 20:38:00,76.3,66.6,29.96,NNW,331,0.0,0.0,72,0.00,CLR,,0.00,0.0,WeatherDisplay:10.37,2013-08-01 01:38:00,
2013-07-31 20:39:00,76.2,66.9,29.96,NNW,331,0.0,0.0,73,0.00,CLR,,0.00,0.0,WeatherDisplay:10.37,2013-08-01 01:39:00,
2013-07-31 20:40:00,76.1,66.8,29.96,NNW,331,0.0,0.0,73,0.00,CLR,,0.00,0.0,WeatherDisplay:10.37,2013-08-01 01:40:00,
2013-07-31 20:41:00,76.1,66.8,29.96,NNW,331,0.0,0.0,73,0.00,CLR,,0.00,0.0,WeatherDisplay:10.37,2013-08-01 01:41:00,
2013-07-31 20:43:00,76.2,66.9,29.96,NNW,331,0.0,0.0,73,0.00,CLR,,0.00,0.0,WeatherDisplay:10.37,2013-08-01 01:43:00,
2013-07-31 20:44:00,76.1,66.8,29.96,NNW,331,0.0,0.0,73,0.00,CLR,,0.00,0.0,WeatherDisplay:10.37,2013-08-01 01:44:00,
2013-07-31 20:45:00,76.1,66.8,29.96,NNW,331,0.0,0.0,73,0.00,CLR,,0.00,0.0,WeatherDisplay:10.37,2013-08-01 01:45:00,
2013-07-31 20:46:00,76.0,67.1,29.96,NNW,331,0.0,0.0,74,0.00,CLR,,0.00,0.0,WeatherDisplay:10.37,2013-08-01 01:46:00,
2013-07-31 20:48:00,75.9,67.0,29.96,NNW,331,0.0,0.0,74,0.00,CLR,,0.00,0.0,WeatherDisplay:10.37,2013-08-01 01:48:00,
2013-07-31 20:50:00,75.7,66.8,29.96,NNW,331,0.0,0.0,74,0.00,CLR,,0.00,0.0,WeatherDisplay:10.37,2013-08-01 01:50:00,
2013-07-31 20:51:00,75.6,66.7,29.96,NNW,331,0.0,0.0,74,0.00,CLR,,0.00,0.0,WeatherDisplay:10.37,2013-08-01 01:51:00,
2013-07-31 20:52:00,75.4,66.9,29.96,NNW,331,0.0,0.0,75,0.00,CLR,,0.00,0.0,WeatherDisplay:10.37,2013-08-01 01:52:00,
2013-07-31 20:53:00,75.2,67.1,29.96,NNW,331,0.0,0.0,76,0.00,CLR,,0.00,0.0,WeatherDisplay:10.37,2013-08-01 01:53:00,
2013-07-31 20:55:00,74.9,66.8,29.96,NNW,331,0.0,0.0,76,0.00,CLR,,0.00,0.0,WeatherDisplay:10.37,2013-08-01 01:55:00,
2013-07-31 20:57:00,74.7,66.6,29.96,NNW,331,0.0,0.0,76,0.00,CLR,,0.00,0.0,WeatherDisplay:10.37,2013-08-01 01:57:00,
2013-07-31 20:59:00,74.6,66.9,29.97,NNW,331,0.0,0.0,77,0.00,CLR,,0.00,0.0,WeatherDisplay:10.37,2013-08-01 01:59:00,
2013-07-31 21:01:00,74.5,66.8,29.97,NNW,331,0.0,0.0,77,0.00,CLR,,0.00,0.0,WeatherDisplay:10.37,2013-08-01 02:01:00,
2013-07-31 21:02:00,74.4,67.1,29.97,NNW,331,0.0,0.0,78,0.00,CLR,,0.00,0.0,WeatherDisplay:10.37,2013-08-01 02:02:00,
2013-07-31 21:04:00,74.3,67.0,29.97,NNW,331,0.0,0.0,78,0.00,CLR,,0.00,0.0,WeatherDisplay:10.37,2013-08-01 02:04:00,
2013-07-31 21:06:00,74.1,66.8,29.97,NNW,331,0.0,0.0,78,0.00,CLR,,0.00,0.0,WeatherDisplay:10.37,2013-08-01 02:06:00,
2013-07-31 21:07:00,74.0,66.7,29.97,NNW,331,0.0,0.0,78,0.00,CLR,,0.00,0.0,WeatherDisplay:10.37,2013-08-01 02:07:00,
2013-07-31 21:09:00,73.8,66.9,29.97,NNW,331,0.0,0.0,79,0.00,CLR,,0.00,0.0,WeatherDisplay:10.37,2013-08-01 02:09:00,
2013-07-31 21:11:00,73.7,67.1,29.97,NNW,331,0.0,0.0,80,0.00,CLR,,0.00,0.0,WeatherDisplay:10.37,2013-08-01 02:11:00,
2013-07-31 21:12:00,73.5,66.9,29.97,NNW,331,0.0,0.0,80,0.00,CLR,,0.00,0.0,WeatherDisplay:10.37,2013-08-01 02:12:00,
2013-07-31 21:13:00,73.5,66.9,29.97,NNW,331,0.0,0.0,80,0.00,CLR,,0.00,0.0,WeatherDisplay:10.37,2013-08-01 02:13:00,
2013-07-31 21:14:00,73.4,66.9,29.97,NNW,331,0.0,0.0,80,0.00,CLR,,0.00,0.0,WeatherDisplay:10.37,2013-08-01 02:14:00,
2013-07-31 21:16:00,73.3,66.8,29.97,NNW,331,0.0,0.0,80,0.00,CLR,,0.00,0.0,WeatherDisplay:10.37,2013-08-01 02:16:00,
2013-07-31 21:17:00,73.2,67.0,29.97,NNW,331,0.0,0.0,81,0.00,CLR,,0.00,0.0,WeatherDisplay:10.37,2013-08-01 02:17:00,
2013-07-31 21:18:00,73.1,66.9,29.97,NNW,331,0.0,0.0,81,0.00,CLR,,0.00,0.0,WeatherDisplay:10.37,2013-08-01 02:18:00,
2013-07-31 21:19:00,73.1,66.9,29.97,NNW,331,0.0,0.0,81,0.00,CLR,,0.00,0.0,WeatherDisplay:10.37,2013-08-01 02:19:00,
2013-07-31 21:21:00,73.2,67.0,29.97,NNW,331,0.0,0.0,81,0.00,CLR,,0.00,0.0,WeatherDisplay:10.37,2013-08-01 02:21:00,
2013-07-31 21:23:00,73.2,67.0,29.97,NNW,331,0.0,0.0,81,0.00,CLR,,0.00,0.0,WeatherDisplay:10.37,2013-08-01 02:23:00,
2013-07-31 21:24:00,73.2,67.0,29.97,NNW,331,0.0,0.0,81,0.00,CLR,,0.00,0.0,WeatherDisplay:10.37,2013-08-01 02:24:00,
2013-07-31 21:27:00,73.1,67.3,29.97,NNW,331,0.0,0.0,82,0.00,CLR,,0.00,0.0,WeatherDisplay:10.37,2013-08-01 02:27:00,
2013-07-31 21:28:00,73.1,67.3,29.98,NNW,331,0.0,0.0,82,0.00,CLR,,0.00,0.0,WeatherDisplay:10.37,2013-08-01 02:28:00,
2013-07-31 21:29:00,73.1,67.3,29.98,NNW,331,0.0,0.0,82,0.00,CLR,,0.00,0.0,WeatherDisplay:10.37,2013-08-01 02:29:00,
2013-07-31 21:32:00,73.0,67.2,29.98,NNW,331,0.0,0.0,82,0.00,CLR,,0.00,0.0,WeatherDisplay:10.37,2013-08-01 02:32:00,
2013-07-31 21:33:00,73.0,67.2,29.98,NNW,331,0.0,0.0,82,0.00,CLR,,0.00,0.0,WeatherDisplay:10.37,2013-08-01 02:33:00,
2013-07-31 21:34:00,73.0,67.2,29.98,NNW,331,0.0,0.0,82,0.00,CLR,,0.00,0.0,WeatherDisplay:10.37,2013-08-01 02:34:00,
2013-07-31 21:38:00,72.8,67.3,29.98,NNW,331,0.0,0.0,83,0.00,CLR,,0.00,0.0,WeatherDisplay:10.37,2013-08-01 02:38:00,
2013-07-31 21:39:00,72.7,67.2,29.98,NNW,331,0.0,0.0,83,0.00,CLR,,0.00,0.0,WeatherDisplay:10.37,2013-08-01 02:39:00,
2013-07-31 21:43:00,72.5,67.4,29.98,NNW,331,0.0,0.0,84,0.00,CLR,,0.00,0.0,WeatherDisplay:10.37,2013-08-01 02:43:00,
2013-07-31 21:44:00,72.4,67.3,29.98,NNW,331,0.0,0.0,84,0.00,CLR,,0.00,0.0,WeatherDisplay:10.37,2013-08-01 02:44:00,
2013-07-31 21:45:00,72.4,67.3,29.98,NNW,331,0.0,0.0,84,0.00,CLR,,0.00,0.0,WeatherDisplay:10.37,2013-08-01 02:45:00,
2013-07-31 21:48:00,72.2,67.1,29.98,NNW,331,0.0,0.0,84,0.00,CLR,,0.00,0.0,WeatherDisplay:10.37,2013-08-01 02:48:00,
2013-07-31 21:49:00,72.2,67.1,29.98,NNW,331,0.0,0.0,84,0.00,CLR,,0.00,0.0,WeatherDisplay:10.37,2013-08-01 02:49:00,
2013-07-31 21:50:00,72.2,67.1,29.98,NNW,331,0.0,0.0,84,0.00,CLR,,0.00,0.0,WeatherDisplay:10.37,2013-08-01 02:50:00,
2013-07-31 21:53:00,72.1,67.3,29.98,NNW,331,0.0,0.0,85,0.00,CLR,,0.00,0.0,WeatherDisplay:10.37,2013-08-01 02:53:00,
2013-07-31 21:54:00,72.0,67.2,29.99,NNW,331,0.0,0.0,85,0.00,CLR,,0.00,0.0,WeatherDisplay:10.37,2013-08-01 02:54:00,
2013-07-31 21:55:00,72.0,67.2,29.99,NNW,331,0.0,0.0,85,0.00,CLR,,0.00,0.0,WeatherDisplay:10.37,2013-08-01 02:55:00,
2013-07-31 21:58:00,71.9,67.1,29.99,NNW,331,0.0,0.0,85,0.00,CLR,,0.00,0.0,WeatherDisplay:10.37,2013-08-01 02:58:00,
2013-07-31 21:59:00,71.8,67.4,29.99,NNW,331,0.0,0.0,86,0.00,CLR,,0.00,0.0,WeatherDisplay:10.37,2013-08-01 02:59:00,
2013-07-31 22:00:00,71.8,67.4,29.99,NNW,331,0.0,0.0,86,0.00,CLR,,0.00,0.0,WeatherDisplay:10.37,2013-08-01 03:00:00,
2013-07-31 22:04:00,71.6,67.2,29.99,NNW,331,0.0,0.0,86,0.00,CLR,,0.00,0.0,WeatherDisplay:10.37,2013-08-01 03:04:00,
2013-07-31 22:05:00,71.6,67.2,29.99,NNW,331,0.0,0.0,86,0.00,CLR,,0.00,0.0,WeatherDisplay:10.37,2013-08-01 03:05:00,
2013-07-31 22:09:00,71.6,67.2,29.99,NNW,331,0.0,0.0,86,0.00,CLR,,0.00,0.0,WeatherDisplay:10.37,2013-08-01 03:09:00,
2013-07-31 22:10:00,71.5,67.1,29.99,NNW,331,0.0,0.0,86,0.00,CLR,,0.00,0.0,WeatherDisplay:10.37,2013-08-01 03:10:00,
2013-07-31 22:14:00,71.4,67.3,29.99,NNW,331,0.0,0.0,87,0.00,CLR,,0.00,0.0,WeatherDisplay:10.37,2013-08-01 03:14:00,
2013-07-31 22:15:00,71.4,67.3,29.99,NNW,331,0.0,0.0,87,0.00,CLR,,0.00,0.0,WeatherDisplay:10.37,2013-08-01 03:15:00,
2013-07-31 22:19:00,71.2,67.1,29.99,NNW,331,0.0,0.0,87,0.00,CLR,,0.00,0.0,WeatherDisplay:10.37,2013-08-01 03:19:00,
2013-07-31 22:20:00,71.2,67.1,29.99,NNW,331,0.0,0.0,87,0.00,CLR,,0.00,0.0,WeatherDisplay:10.37,2013-08-01 03:20:00,
2013-07-31 22:21:00,71.1,67.0,29.99,NNW,331,0.0,0.0,87,0.00,CLR,,0.00,0.0,WeatherDisplay:10.37,2013-08-01 03:21:00,
2013-07-31 22:24:00,70.9,67.2,29.99,NNW,331,0.0,0.0,88,0.00,CLR,,0.00,0.0,WeatherDisplay:10.37,2013-08-01 03:24:00,
2013-07-31 22:25:00,70.9,67.2,29.99,NNW,331,0.0,0.0,88,0.00,CLR,,0.00,0.0,WeatherDisplay:10.37,2013-08-01 03:25:00,
2013-07-31 22:26:00,70.8,67.1,29.99,NNW,331,0.0,0.0,88,0.00,CLR,,0.00,0.0,WeatherDisplay:10.37,2013-08-01 03:26:00,
2013-07-31 22:28:00,70.7,67.0,29.99,NNW,331,0.0,0.0,88,0.00,CLR,,0.00,0.0,WeatherDisplay:10.37,2013-08-01 03:28:00,
2013-07-31 22:30:00,70.5,67.1,29.99,NNW,331,0.0,0.0,89,0.00,CLR,,0.00,0.0,WeatherDisplay:10.37,2013-08-01 03:30:00,
2013-07-31 22:31:00,70.4,67.0,29.99,NNW,331,0.0,0.0,89,0.00,CLR,,0.00,0.0,WeatherDisplay:10.37,2013-08-01 03:31:00,
2013-07-31 22:32:00,70.4,67.0,29.99,NNW,331,0.0,0.0,89,0.00,CLR,,0.00,0.0,WeatherDisplay:10.37,2013-08-01 03:32:00,
2013-07-31 22:33:00,70.4,67.0,29.99,NNW,331,0.0,0.0,89,0.00,CLR,,0.00,0.0,WeatherDisplay:10.37,2013-08-01 03:33:00,
2013-07-31 22:35:00,70.4,67.0,29.99,NNW,331,0.0,0.0,89,0.00,CLR,,0.00,0.0,WeatherDisplay:10.37,2013-08-01 03:35:00,
2013-07-31 22:36:00,70.4,67.0,29.99,NNW,331,0.0,0.0,89,0.00,CLR,,0.00,0.0,WeatherDisplay:10.37,2013-08-01 03:36:00,
2013-07-31 22:37:00,70.4,67.0,29.99,NNW,331,0.0,0.0,89,0.00,CLR,,0.00,0.0,WeatherDisplay:10.37,2013-08-01 03:37:00,
2013-07-31 22:39:00,70.3,66.9,29.99,NNW,331,0.0,0.0,89,0.00,CLR,,0.00,0.0,WeatherDisplay:10.37,2013-08-01 03:39:00,
2013-07-31 22:40:00,70.3,66.9,29.99,NNW,331,0.0,0.0,89,0.00,CLR,,0.00,0.0,WeatherDisplay:10.37,2013-08-01 03:40:00,
2013-07-31 22:41:00,70.3,66.9,29.99,NNW,331,0.0,0.0,89,0.00,CLR,,0.00,0.0,WeatherDisplay:10.37,2013-08-01 03:41:00,
2013-07-31 22:42:00,70.2,66.8,29.99,NNW,331,0.0,0.0,89,0.00,CLR,,0.00,0.0,WeatherDisplay:10.37,2013-08-01 03:42:00,
2013-07-31 22:44:00,70.1,67.0,29.98,NNW,331,0.0,0.0,90,0.00,CLR,,0.00,0.0,WeatherDisplay:10.37,2013-08-01 03:44:00,
2013-07-31 22:45:00,70.0,66.9,29.98,NNW,331,0.0,0.0,90,0.00,CLR,,0.00,0.0,WeatherDisplay:10.37,2013-08-01 03:45:00,
2013-07-31 22:46:00,70.0,66.9,29.98,NNW,331,0.0,0.0,90,0.00,CLR,,0.00,0.0,WeatherDisplay:10.37,2013-08-01 03:46:00,
2013-07-31 22:47:00,70.0,66.9,29.99,NNW,331,0.0,0.0,90,0.00,CLR,,0.00,0.0,WeatherDisplay:10.37,2013-08-01 03:47:00,
2013-07-31 22:48:00,70.0,66.9,29.99,NNW,331,0.0,0.0,90,0.00,CLR,,0.00,0.0,WeatherDisplay:10.37,2013-08-01 03:48:00,
2013-07-31 22:49:00,69.9,66.8,29.98,NNW,331,0.0,0.0,90,0.00,CLR,,0.00,0.0,WeatherDisplay:10.37,2013-08-01 03:49:00,
2013-07-31 22:50:00,69.9,66.8,29.98,NNW,331,0.0,0.0,90,0.00,CLR,,0.00,0.0,WeatherDisplay:10.37,2013-08-01 03:50:00,
2013-07-31 22:51:00,69.9,67.2,29.98,NNW,331,0.0,0.0,91,0.00,CLR,,0.00,0.0,WeatherDisplay:10.37,2013-08-01 03:51:00,
2013-07-31 22:52:00,69.9,67.2,29.98,NNW,331,0.0,0.0,91,0.00,CLR,,0.00,0.0,WeatherDisplay:10.37,2013-08-01 03:52:00,
2013-07-31 22:53:00,69.9,67.2,29.98,NNW,331,0.0,0.0,91,0.00,CLR,,0.00,0.0,WeatherDisplay:10.37,2013-08-01 03:53:00,
2013-07-31 22:54:00,69.9,67.2,29.99,NNW,331,0.0,0.0,91,0.00,CLR,,0.00,0.0,WeatherDisplay:10.37,2013-08-01 03:54:00,
2013-07-31 22:56:00,69.8,67.1,29.99,NNW,331,0.0,0.0,91,0.00,CLR,,0.00,0.0,WeatherDisplay:10.37,2013-08-01 03:56:00,
2013-07-31 22:57:00,69.8,67.1,29.99,NNW,331,0.0,0.0,91,0.00,CLR,,0.00,0.0,WeatherDisplay:10.37,2013-08-01 03:57:00,
2013-07-31 22:58:00,69.8,67.1,29.99,NNW,331,0.0,0.0,91,0.00,CLR,,0.00,0.0,WeatherDisplay:10.37,2013-08-01 03:58:00,
2013-07-31 22:59:00,69.7,67.0,29.99,NNW,331,0.0,0.0,91,0.00,CLR,,0.00,0.0,WeatherDisplay:10.37,2013-08-01 03:59:00,
2013-07-31 23:01:00,69.7,67.0,29.99,NNW,331,0.0,0.0,91,0.00,CLR,,0.00,0.0,WeatherDisplay:10.37,2013-08-01 04:01:00,
2013-07-31 23:02:00,69.7,67.0,29.99,NNW,331,0.0,0.0,91,0.00,CLR,,0.00,0.0,WeatherDisplay:10.37,2013-08-01 04:02:00,
2013-07-31 23:07:00,69.6,66.9,29.99,NNW,331,0.0,0.0,91,0.00,CLR,,0.00,0.0,WeatherDisplay:10.37,2013-08-01 04:07:00,
2013-07-31 23:12:00,69.4,67.0,29.99,NNW,331,0.0,0.0,92,0.00,CLR,,0.00,0.0,WeatherDisplay:10.37,2013-08-01 04:12:00,
2013-07-31 23:17:00,69.1,66.7,29.99,NNW,331,0.0,0.0,92,0.00,CLR,,0.00,0.0,WeatherDisplay:10.37,2013-08-01 04:17:00,
2013-07-31 23:18:00,69.1,66.7,29.99,NNW,331,0.0,0.0,92,0.00,CLR,,0.00,0.0,WeatherDisplay:10.37,2013-08-01 04:18:00,
2013-07-31 23:22:00,69.0,66.9,29.99,NNW,331,0.0,0.0,93,0.00,CLR,,0.00,0.0,WeatherDisplay:10.37,2013-08-01 04:22:00,
2013-07-31 23:23:00,69.0,66.9,29.99,NNW,331,0.0,0.0,93,0.00,CLR,,0.00,0.0,WeatherDisplay:10.37,2013-08-01 04:23:00,
2013-07-31 23:27:00,68.8,66.7,29.99,NNW,331,0.0,0.0,93,0.00,CLR,,0.00,0.0,WeatherDisplay:10.37,2013-08-01 04:27:00,
2013-07-31 23:28:00,68.8,66.7,29.99,NNW,331,0.0,0.0,93,0.00,CLR,,0.00,0.0,WeatherDisplay:10.37,2013-08-01 04:28:00,
2013-07-31 23:29:00,68.8,66.7,29.99,NNW,331,0.0,0.0,93,0.00,CLR,,0.00,0.0,WeatherDisplay:10.37,2013-08-01 04:29:00,
2013-07-31 23:33:00,68.7,66.6,29.99,NNW,331,0.0,0.0,93,0.00,CLR,,0.00,0.0,WeatherDisplay:10.37,2013-08-01 04:33:00,
2013-07-31 23:34:00,68.6,66.5,29.99,NNW,331,0.0,0.0,93,0.00,CLR,,0.00,0.0,WeatherDisplay:10.37,2013-08-01 04:34:00,
2013-07-31 23:38:00,68.5,66.7,29.99,NNW,331,0.0,0.0,94,0.00,CLR,,0.00,0.0,WeatherDisplay:10.37,2013-08-01 04:38:00,
2013-07-31 23:39:00,68.5,66.7,29.99,NNW,331,0.0,0.0,94,0.00,CLR,,0.00,0.0,WeatherDisplay:10.37,2013-08-01 04:39:00,
2013-07-31 23:40:00,68.5,66.7,29.99,NNW,331,0.0,0.0,94,0.00,CLR,,0.00,0.0,WeatherDisplay:10.37,2013-08-01 04:40:00,
2013-07-31 23:43:00,68.5,66.4,30.00,NNW,331,0.0,0.0,93,0.00,CLR,,0.00,0.0,WeatherDisplay:10.37,2013-08-01 04:43:00,
2013-07-31 23:44:00,68.5,66.7,30.00,NNW,331,0.0,0.0,94,0.00,CLR,,0.00,0.0,WeatherDisplay:10.37,2013-08-01 04:44:00,
2013-07-31 23:45:00,68.5,66.7,30.00,NNW,331,0.0,0.0,94,0.00,CLR,,0.00,0.0,WeatherDisplay:10.37,2013-08-01 04:45:00,
2013-07-31 23:48:00,68.6,66.8,30.00,NNW,331,0.0,0.0,94,0.00,CLR,,0.00,0.0,WeatherDisplay:10.37,2013-08-01 04:48:00,
2013-07-31 23:49:00,68.7,66.9,30.00,NNW,331,0.0,0.0,94,0.00,CLR,,0.00,0.0,WeatherDisplay:10.37,2013-08-01 04:49:00,
2013-07-31 23:50:00,68.7,66.9,30.00,NNW,331,0.0,0.0,94,0.00,CLR,,0.00,0.0,WeatherDisplay:10.37,2013-08-01 04:50:00,
2013-07-31 23:51:00,68.7,66.9,30.00,NNW,331,0.0,0.0,94,0.00,CLR,,0.00,0.0,WeatherDisplay:10.37,2013-08-01 04:51:00,
2013-07-31 23:53:00,68.7,66.9,30.00,NNW,331,0.0,0.0,94,0.00,CLR,,0.00,0.0,WeatherDisplay:10.37,2013-08-01 04:53:00,
2013-07-31 23:54:00,68.7,66.9,30.00,NNW,331,0.0,0.0,94,0.00,CLR,,0.00,0.0,WeatherDisplay:10.37,2013-08-01 04:54:00,
2013-07-31 23:55:00,68.6,66.8,30.00,NNW,331,0.0,0.0,94,0.00,CLR,,0.00,0.0,WeatherDisplay:10.37,2013-08-01 04:55:00,
2013-07-31 23:56:00,68.6,66.8,30.00,NNW,331,0.0,0.0,94,0.00,CLR,,0.00,0.0,WeatherDisplay:10.37,2013-08-01 04:56:00,
2013-07-31 23:58:00,68.6,66.8,30.00,NNW,331,0.0,0.0,94,0.00,CLR,,0.00,0.0,WeatherDisplay:10.37,2013-08-01 04:58:00,
2013-07-31 23:59:00,68.6,66.8,30.00,NNW,331,0.0,0.0,94,0.00,CLR,,0.00,0.0,WeatherDisplay:10.37,2013-08-01 04:59:00,